GFSNGP_925_temp_000.txt.gz
Temp
17 17 16 16 16 17 16 16 14 16 18 20 20 21 20 20 19 17 16 16 15 15 15 12 10 9 9 8 7 6 6 6 6 4 4 3 3 2 1 1 1 1 0 0
12 15 15 15 16 16 16 17 17 17 18 20 20 20 20 18 18 16 15 15 14 14 13 11 10 9 9 7 7 7 6 6 5 3 3 3 2 1 1 1 1 1 0 -0
12 15 13 12 13 16 18 18 17 16 18 20 19 19 17 15 15 14 14 12 10 12 12 10 9 9 8 8 7 6 6 5 4 3 2 2 1 1 1 0 0 -0 -0 -1
12 12 13 20 20 19 18 17 18 18 18 18 18 17 14 15 14 12 10 8 10 10 10 9 8 9 7 7 6 5 5 4 3 2 2 1 1 1 0 -0 -1 -1 -1 -2
12 13 16 18 19 17 16 16 18 18 18 17 15 13 12 15 11 9 6 8 9 7 8 7 7 6 6 6 6 5 4 3 2 1 1 1 0 -0 -1 -1 -2 -2 -2 -3
12 12 14 17 19 16 15 15 16 16 15 13 12 10 13 14 9 7 7 9 7 5 4 4 4 6 6 6 6 5 3 2 1 1 0 -0 -1 -1 -1 -2 -2 -3 -4 -5
11 11 14 18 15 15 13 15 14 15 15 14 13 13 13 8 7 8 9 8 5 3 4 6 6 5 5 6 5 2 1 1 1 -0 -0 -1 -2 -2 -2 -3 -4 -5 -5 -5
11 12 13 17 14 13 16 16 16 16 15 14 13 10 9 7 8 8 7 3 2 4 6 6 6 5 6 5 2 1 1 0 -0 -1 -1 -2 -2 -2 -3 -3 -4 -4 -5 -4
15 15 18 17 15 15 16 15 15 14 15 13 10 11 7 7 7 8 3 3 5 6 6 6 4 4 5 2 1 0 0 -0 -1 -1 -2 -2 -3 -3 -3 -3 -4 -4 -4 -3
12 14 16 16 16 16 16 15 15 13 11 9 8 6 6 7 9 4 3 4 6 6 6 5 4 2 2 0 -1 -0 -1 -1 -2 -2 -3 -3 -4 -3 -3 -4 -5 -4 -4 -3
11 12 15 15 16 15 15 15 14 12 10 9 7 7 7 9 5 2 3 5 5 5 5 5 3 2 0 -1 -1 -1 -2 -3 -3 -3 -4 -4 -4 -4 -4 -5 -6 -6 -5 -5
12 15 14 14 15 15 15 13 12 10 10 7 9 8 8 6 2 2 4 5 5 5 4 4 2 1 -0 -1 -2 -2 -3 -3 -4 -5 -4 -4 -4 -4 -4 -5 -6 -6 -6 -6
14 15 14 15 15 15 13 12 12 12 10 10 8 6 2 2 2 3 4 5 5 4 4 3 2 1 -1 -2 -4 -6 -5 -5 -5 -5 -4 -4 -5 -5 -4 -5 -5 -6 -6 -7
14 14 13 14 13 13 13 13 12 11 8 6 4 2 2 2 4 4 5 4 3 3 2 2 1 -0 -3 -4 -5 -6 -7 -6 -5 -5 -5 -5 -6 -6 -6 -6 -5 -5 -6 -7
15 14 13 13 12 12 12 11 10 10 8 4 3 2 3 4 5 5 3 1 0 1 0 -1 -1 -2 -4 -5 -6 -6 -5 -5 -6 -6 -6 -6 -6 -6 -6 -6 -6 -6 -6 -6
13 12 12 11 11 10 10 9 9 8 4 3 3 2 3 4 3 2 -0 -1 0 0 -3 -3 -5 -4 -5 -5 -5 -4 -4 -6 -7 -6 -6 -5 -5 -6 -6 -6 -6 -6 -7 -8
10 10 9 9 9 8 7 6 4 2 3 3 2 1 0 -0 -1 -1 -1 -2 -3 -3 -3 -4 -4 -4 -5 -6 -6 -4 -4 -5 -7 -6 -6 -6 -6 -6 -6 -6 -6 -7 -7 -8
9 9 9 8 7 6 4 3 1 1 2 1 -1 -1 -1 -1 0 -1 -3 -4 -3 -3 -3 -3 -3 -4 -5 -6 -6 -6 -6 -6 -6 -6 -6 -6 -7 -6 -7 -7 -7 -7 -8 -8
8 8 7 6 6 4 3 2 1 0 -0 -1 -1 -1 -2 -2 -2 -3 -4 -4 -4 -3 -2 -3 -3 -4 -6 -6 -7 -6 -6 -7 -6 -6 -7 -7 -7 -7 -7 -7 -8 -8 -8 -9
6 6 5 5 3 1 1 1 0 -0 -1 -2 -2 -2 -1 -2 -4 -4 -4 -3 -3 -2 -2 -3 -4 -5 -6 -6 -7 -6 -7 -7 -7 -7 -8 -7 -7 -8 -8 -8 -8 -8 -9 -9
3 4 2 0 0 -0 -0 -0 -1 -1 -2 -2 -3 -2 -3 -4 -5 -5 -3 -1 -2 -2 -2 -3 -4 -5 -6 -6 -7 -7 -8 -8 -8 -8 -8 -8 -8 -8 -8 -8 -9 -9 -10 -10
3 1 0 0 -0 -0 -1 -1 -1 -2 -2 -3 -4 -5 -4 -3 -3 -4 -4 -4 -2 -3 -4 -4 -4 -5 -6 -6 -7 -8 -8 -8 -8 -8 -8 -8 -8 -9 -9 -9 -9 -10 -10 -11
3 1 1 -0 -0 1 -1 -1 -2 -2 -3 -3 -4 -4 -3 -4 -4 -4 -2 -3 -4 -4 -4 -4 -4 -5 -6 -7 -7 -8 -8 -8 -8 -9 -9 -9 -9 -9 -10 -10 -10 -10 -11 -11
2 0 -1 -1 -1 -1 0 -1 -2 -3 -3 -3 -3 -3 -3 -3 -3 -3 -4 -4 -4 -4 -4 -4 -5 -5 -6 -7 -8 -8 -8 -8 -9 -9 -9 -10 -10 -10 -10 -10 -11 -11 -11 -12
-0 -1 -1 -1 -1 2 -0 -2 -3 -3 -3 -3 -3 -3 -3 -3 -4 -3 -4 -4 -4 -4 -4 -5 -5 -5 -7 -7 -8 -8 -8 -8 -9 -9 -9 -9 -10 -10 -10 -11 -11 -11 -12 -13
-1 -1 -0 -0 1 1 0 -2 -0 -1 -2 -1 -2 -3 -3 -3 -4 -4 -4 -4 -4 -4 -4 -5 -6 -6 -7 -7 -8 -9 -9 -9 -10 -10 -10 -10 -11 -11 -11 -11 -12 -12 -13 -13
-2 -2 -1 -1 -1 -2 -1 -1 -1 -1 -3 -4 -3 -3 -3 -3 -3 -3 -4 -4 -4 -4 -4 -5 -6 -7 -7 -7 -8 -9 -9 -10 -10 -10 -10 -10 -11 -11 -11 -12 -12 -13 -13 -13

GFSNGP_925_temp_003.txt.gz
Temp
19 20 20 20 19 20 20 20 18 19 20 22 22 22 22 21 21 20 19 19 18 16 14 13 14 14 12 11 10 9 8 8 7 6 6 5 5 5 4 4 3 3 3 3
14 17 18 18 19 19 19 20 20 20 20 22 22 22 21 19 18 18 18 18 16 13 12 13 13 13 12 10 10 9 8 7 7 6 6 5 5 4 4 3 3 3 3 2
13 16 13 12 15 18 19 21 21 19 21 21 20 19 18 18 17 17 16 16 13 11 12 12 11 11 11 10 8 6 7 6 6 6 5 4 4 4 3 3 2 2 2 2
12 13 14 20 21 21 20 21 21 20 20 19 18 18 17 17 16 11 12 12 9 11 11 11 9 10 9 6 6 6 6 7 6 5 4 4 4 3 3 2 2 1 1 0
13 15 16 17 21 20 18 17 19 19 18 18 17 16 14 16 12 11 11 8 11 10 10 7 7 6 5 4 6 7 7 6 5 4 4 3 3 3 2 1 1 0 -0 -1
13 13 13 18 20 19 19 17 18 17 17 15 14 12 12 12 13 10 8 11 11 9 6 4 4 4 6 7 7 7 6 5 4 4 3 3 2 1 1 1 0 -1 -2 -3
11 12 14 18 20 18 14 16 17 17 15 15 14 13 13 11 9 9 11 10 8 4 4 6 6 7 7 7 7 6 4 4 3 3 3 2 1 1 0 -0 -2 -3 -3 -4
11 12 13 20 19 14 15 17 17 16 15 14 13 12 11 8 8 10 11 10 5 4 6 6 6 7 7 8 6 4 3 3 3 3 2 1 1 0 -1 -1 -1 -3 -3 -3
16 16 20 20 18 18 18 17 15 14 15 12 11 12 11 9 10 10 9 5 5 6 6 6 7 6 7 5 4 3 3 3 2 1 1 0 -0 -1 -1 -1 -2 -3 -4 -4
14 16 18 17 17 18 16 14 16 15 14 14 13 12 10 10 10 10 4 3 5 5 6 7 6 5 5 3 2 2 2 1 1 0 -0 -1 -1 -1 -1 -2 -3 -4 -4 -4
13 15 16 15 15 17 15 15 15 15 14 13 11 11 9 9 10 5 2 4 5 6 6 7 6 4 3 2 1 1 1 0 -0 -0 -1 -2 -2 -2 -3 -3 -4 -5 -5 -5
10 13 14 15 17 16 15 14 14 14 14 14 13 11 9 8 5 2 3 4 5 6 6 6 5 4 3 2 1 -0 -1 -1 -2 -2 -2 -2 -2 -2 -3 -4 -5 -5 -6 -6
12 14 14 16 16 15 14 14 14 13 13 13 12 8 6 3 3 4 5 5 6 6 5 4 4 3 2 -1 -2 -4 -4 -4 -3 -3 -2 -2 -3 -3 -5 -5 -5 -5 -6 -6
16 15 15 15 14 15 14 14 13 12 12 9 6 4 3 4 5 5 6 6 5 5 4 3 3 2 -0 -1 -4 -5 -5 -4 -3 -3 -3 -3 -4 -4 -5 -5 -5 -5 -5 -6
17 16 15 15 15 14 13 13 11 11 10 7 4 3 3 5 5 6 5 3 2 2 2 2 0 0 -1 -2 -4 -3 -4 -3 -5 -5 -4 -4 -4 -4 -4 -5 -5 -5 -5 -6
14 14 14 13 13 13 12 12 9 7 4 4 3 2 3 4 5 4 2 -0 1 2 -0 -2 -3 -2 -3 -2 -3 -2 -1 -3 -5 -5 -4 -4 -4 -4 -5 -5 -5 -5 -6 -7
12 11 11 11 11 11 10 9 6 3 3 2 2 1 1 0 1 1 1 -1 -1 -2 -2 -3 -3 -1 -4 -3 -3 -2 -2 -3 -5 -4 -4 -4 -5 -5 -5 -6 -6 -6 -7 -8
12 12 11 11 11 10 8 7 3 2 3 2 0 -0 -0 -0 0 -0 -1 -2 -2 -2 -2 -2 -2 -3 -4 -4 -4 -4 -4 -4 -4 -4 -4 -5 -5 -5 -6 -6 -6 -7 -7 -8
10 10 10 10 9 7 6 4 3 2 0 -0 -0 -1 -1 -1 -1 -2 -2 -3 -2 -2 -0 -2 -2 -3 -4 -5 -5 -4 -4 -5 -5 -4 -5 -5 -5 -6 -6 -7 -7 -7 -8 -8
8 8 8 7 6 3 2 2 1 1 0 -1 -1 -1 -0 -1 -2 -3 -3 -2 -2 -1 -2 -3 -3 -4 -4 -5 -6 -4 -5 -5 -5 -5 -5 -6 -6 -6 -7 -7 -8 -8 -8 -9
6 6 5 2 1 2 1 0 0 0 -0 -1 -2 -1 -2 -2 -3 -3 -2 1 -1 -2 -2 -3 -3 -2 -3 -4 -5 -5 -6 -6 -6 -6 -6 -6 -6 -7 -7 -7 -8 -9 -9 -9
6 5 3 1 1 1 1 -0 -0 -1 -1 -2 -2 -3 -3 -1 -2 -2 -2 -3 -3 -3 -4 -3 -3 -3 -4 -5 -5 -6 -6 -6 -6 -7 -6 -7 -7 -7 -7 -8 -8 -9 -9 -10
6 5 3 1 0 -0 0 -1 -1 -1 -1 -2 -2 -2 -2 -2 -2 -2 -1 -2 -4 -4 -4 -4 -3 -4 -4 -5 -6 -6 -6 -7 -7 -7 -7 -7 -8 -8 -8 -9 -9 -9 -10 -10
5 4 3 1 -1 -1 -0 0 -1 -1 -2 -2 -3 -2 -2 -1 -2 -2 -3 -3 -3 -3 -3 -3 -4 -4 -5 -6 -6 -6 -6 -6 -7 -7 -7 -9 -8 -9 -9 -9 -9 -10 -10 -11
2 2 0 -1 -1 1 1 1 -1 -2 -2 -1 -1 -2 -2 -2 -3 -3 -4 -3 -3 -4 -4 -4 -5 -6 -7 -5 -6 -6 -6 -7 -7 -7 -8 -8 -8 -9 -9 -9 -10 -10 -11 -11
1 0 -0 -1 0 3 3 1 1 1 1 0 -0 -2 -2 -3 -4 -3 -3 -3 -4 -4 -4 -4 -5 -6 -6 -6 -6 -6 -7 -7 -8 -8 -8 -8 -9 -9 -9 -10 -10 -11 -11 -12
-0 -1 -1 -1 1 1 1 1 1 0 -1 -3 -2 -3 -2 -3 -3 -3 -3 -3 -4 -3 -4 -4 -5 -5 -6 -6 -6 -7 -7 -7 -8 -8 -8 -8 -9 -9 -10 -10 -10 -11 -12 -12

GFSNGP_925_temp_006.txt.gz
Temp
18 19 18 18 18 19 19 19 17 19 20 22 22 22 20 19 19 18 18 17 15 14 15 14 13 13 13 13 12 11 10 9 9 7 6 5 6 5 5 4 4 4 3 3
13 16 17 17 17 18 18 19 20 20 20 22 22 20 19 18 18 17 15 14 13 14 12 12 12 12 11 11 11 10 9 7 5 5 6 6 5 5 4 4 4 3 3 3
14 15 13 12 15 18 19 20 20 18 20 21 20 18 17 16 17 14 13 13 13 11 11 12 11 10 9 9 7 6 5 4 4 4 6 5 5 4 4 4 3 3 2 2
11 10 13 18 20 19 19 20 20 20 20 20 18 17 16 16 13 12 11 11 11 11 11 11 9 7 7 6 6 5 4 4 5 6 5 5 4 4 3 3 2 2 1 1
12 13 16 16 18 18 17 17 19 18 17 17 16 14 14 14 12 10 11 11 10 11 10 8 7 5 5 4 4 3 6 7 6 5 5 4 4 3 2 2 1 1 0 -1
13 13 13 17 18 19 19 15 16 15 14 14 13 11 11 13 12 11 11 11 11 10 8 7 5 5 6 6 6 7 7 6 5 4 4 4 3 2 1 1 1 -0 -1 -2
12 12 14 17 19 18 14 12 13 14 13 13 12 11 11 12 12 11 11 11 10 8 6 5 7 6 7 7 7 6 5 5 4 4 4 3 2 1 1 0 -1 -1 -2 -3
10 12 13 19 18 13 15 15 14 13 12 12 12 12 13 12 11 11 11 10 8 6 6 6 6 5 7 7 5 4 4 4 3 3 2 2 1 0 -0 -1 -1 -2 -3 -4
15 15 17 18 17 16 15 14 13 13 14 13 12 12 12 11 11 10 9 7 6 6 6 5 6 7 7 4 5 4 3 3 2 1 1 1 -0 -0 -1 -1 -2 -3 -4 -4
13 15 16 16 16 15 15 13 13 13 12 12 13 13 13 12 11 9 6 5 5 5 5 6 6 6 4 3 3 3 2 2 1 1 0 -1 -1 -1 -1 -2 -3 -4 -5 -5
12 13 14 14 15 15 14 14 12 12 11 13 13 12 12 10 10 6 3 4 4 5 6 6 6 5 4 3 2 2 1 0 0 -1 -2 -2 -2 -2 -2 -3 -4 -5 -5 -5
11 14 13 13 15 15 13 11 11 13 13 13 12 10 9 8 6 4 4 4 5 5 7 6 6 5 4 3 1 -1 -2 -1 -2 -2 -3 -2 -2 -3 -3 -4 -4 -4 -5 -5
14 15 15 16 15 14 11 11 14 13 12 10 8 7 6 5 4 5 5 4 4 6 6 5 4 4 2 1 -1 -3 -4 -4 -3 -3 -3 -3 -3 -4 -4 -4 -4 -5 -5 -6
16 15 12 13 13 13 13 13 13 11 9 7 7 5 4 4 4 4 4 5 5 5 4 3 2 2 1 -0 -1 -3 -3 -4 -3 -4 -4 -4 -4 -4 -4 -5 -5 -5 -5 -6
15 14 14 14 13 13 13 12 11 9 6 5 4 3 3 3 3 4 4 2 2 2 1 1 -0 -1 -1 -2 -2 -3 -3 -3 -3 -4 -4 -4 -4 -4 -4 -5 -5 -5 -6 -7
13 13 13 12 12 12 12 11 10 7 3 3 2 2 2 3 3 3 3 1 -0 -0 -1 -1 -1 -1 -1 -2 -2 -2 -1 -2 -3 -4 -4 -4 -4 -4 -5 -5 -6 -6 -7 -8
11 10 10 10 11 11 10 10 7 4 4 3 2 1 1 0 1 1 0 -0 -1 -1 -1 -2 -3 -2 -2 -3 -2 -3 -3 -3 -3 -4 -4 -4 -5 -5 -5 -6 -6 -7 -7 -8
12 11 11 11 10 9 8 7 4 3 2 1 1 0 -0 -0 -1 -0 -1 -1 -1 -1 -1 -1 -2 -3 -3 -4 -4 -4 -4 -4 -5 -4 -4 -5 -5 -6 -6 -6 -7 -7 -8 -8
11 10 10 10 9 7 6 5 4 3 1 1 -0 -0 -0 -1 -1 -2 -2 -2 -2 -1 -1 -2 -3 -3 -4 -4 -4 -5 -4 -5 -5 -5 -5 -6 -6 -6 -6 -7 -7 -8 -8 -9
8 8 8 8 7 3 2 1 1 1 1 0 -1 -1 -1 -1 -2 -2 -2 -2 -1 -2 -2 -3 -3 -4 -3 -4 -4 -5 -5 -5 -6 -6 -6 -6 -6 -6 -7 -7 -8 -8 -9 -9
5 5 5 4 3 2 0 1 0 0 1 -0 -1 -1 -2 -2 -2 -2 -2 -2 -2 -3 -3 -3 -3 -3 -3 -4 -4 -4 -5 -6 -6 -6 -6 -6 -6 -7 -7 -7 -8 -9 -9 -10
5 5 4 3 0 0 1 1 -0 -0 -0 -1 -1 -2 -2 -1 -1 -1 -1 -2 -3 -3 -4 -4 -3 -3 -3 -4 -4 -5 -5 -6 -6 -6 -6 -7 -7 -7 -8 -8 -8 -9 -10 -10
5 5 5 4 0 1 1 -0 -1 -1 -1 -1 -2 -2 -2 -2 -1 -1 -2 -2 -3 -3 -4 -4 -3 -3 -4 -5 -5 -5 -5 -6 -6 -6 -7 -7 -8 -8 -8 -9 -9 -10 -10 -10
5 5 4 3 2 0 -0 -1 -0 -0 -1 -2 -2 -2 -2 -1 -1 -1 -2 -3 -3 -3 -3 -4 -4 -5 -6 -5 -5 -5 -5 -6 -6 -7 -7 -8 -8 -8 -9 -9 -9 -10 -11 -11
4 3 2 1 1 0 -1 -1 0 -1 -2 -2 -1 -1 -2 -2 -3 -3 -3 -3 -3 -3 -3 -3 -4 -5 -6 -6 -5 -5 -5 -6 -6 -7 -7 -7 -8 -8 -9 -9 -10 -10 -11 -11
4 2 1 1 0 -0 0 1 1 1 0 0 -1 -1 -2 -3 -3 -3 -3 -3 -3 -3 -3 -4 -4 -4 -5 -5 -5 -5 -6 -6 -7 -8 -8 -8 -8 -9 -9 -10 -10 -11 -11 -12
2 1 -0 -0 -1 -1 1 1 1 1 -0 -1 -2 -3 -2 -3 -3 -3 -3 -3 -3 -4 -3 -3 -4 -4 -4 -5 -5 -5 -6 -7 -7 -8 -8 -8 -8 -9 -9 -10 -10 -11 -11 -12

GFSNGP_925_temp_009.txt.gz
Temp
15 16 16 17 16 16 15 15 14 15 16 18 17 15 14 15 15 15 13 12 12 12 11 11 11 10 11 10 10 10 10 8 6 5 5 5 5 5 5 5 5 4 4 3
13 15 15 14 14 15 15 15 15 16 17 17 16 14 13 13 14 12 12 12 12 11 11 11 10 10 9 8 8 7 6 5 4 4 4 3 3 3 4 5 4 3 3 3
14 13 12 10 13 15 15 16 15 13 14 13 13 14 13 12 11 11 11 11 11 10 10 10 10 8 7 7 6 6 4 4 3 3 3 3 3 4 4 4 3 2 2 1
12 9 12 14 17 17 15 16 15 14 13 13 13 12 13 13 11 10 11 10 9 10 9 8 7 7 6 5 4 4 3 4 4 4 4 5 5 4 3 3 2 1 1 0
11 11 13 14 15 16 14 14 13 13 13 14 12 12 12 13 11 10 10 9 10 9 8 7 6 6 5 5 4 4 4 5 5 5 4 4 4 3 2 2 1 1 -0 -1
8 9 11 13 15 15 15 12 12 13 12 11 11 10 10 11 10 10 10 11 10 8 7 6 6 6 6 6 6 5 5 5 4 4 4 3 2 2 1 1 -0 -1 -1 -2
7 10 10 13 16 15 11 13 12 12 12 11 11 11 11 11 10 10 10 10 8 7 6 6 6 5 5 6 5 5 4 4 4 3 3 2 1 1 -0 -1 -1 -2 -3 -3
7 11 10 15 14 11 12 12 14 12 11 11 10 10 10 9 9 9 8 6 5 5 5 6 5 5 5 4 4 4 4 3 3 2 1 1 -0 -1 -1 -1 -2 -3 -4 -4
10 10 12 14 13 13 14 13 12 11 10 9 9 9 9 9 9 7 5 4 4 4 5 4 6 6 5 3 3 3 2 2 1 1 0 -1 -1 -2 -2 -2 -3 -4 -5 -6
10 13 14 13 13 13 13 12 10 10 9 9 9 9 7 7 6 4 4 3 4 5 5 5 6 5 4 3 3 2 1 0 -0 -1 -2 -2 -2 -2 -2 -4 -4 -5 -5 -6
11 12 12 12 12 12 11 10 9 9 9 9 8 7 6 6 5 4 4 4 4 4 5 5 5 4 4 3 2 1 -0 -1 -2 -2 -3 -3 -3 -3 -3 -4 -4 -5 -5 -5
10 12 11 12 11 11 10 9 9 10 8 8 6 6 5 5 4 4 4 4 3 4 5 4 4 3 2 1 1 -0 -2 -3 -4 -3 -3 -4 -4 -4 -4 -4 -4 -5 -5 -6
11 12 12 10 11 11 11 10 10 8 6 6 5 5 4 3 4 3 3 3 4 4 4 3 2 1 1 0 -0 -2 -3 -4 -3 -4 -4 -4 -4 -4 -5 -5 -5 -5 -6 -7
13 12 11 11 10 11 11 11 11 7 6 5 4 3 3 3 3 3 3 3 3 2 2 1 1 0 -1 -1 -2 -2 -3 -3 -3 -4 -4 -4 -4 -4 -5 -5 -6 -6 -6 -8
12 11 11 10 10 10 10 10 8 5 4 3 3 2 2 2 2 3 3 2 2 1 0 0 -0 -1 -1 -2 -2 -2 -2 -2 -3 -4 -4 -4 -4 -5 -5 -6 -6 -7 -7 -8
10 10 9 9 9 9 9 8 7 5 3 3 2 1 1 1 1 1 1 1 0 -0 -0 -1 -1 -2 -2 -2 -3 -3 -3 -4 -4 -4 -4 -5 -5 -5 -6 -6 -7 -7 -8 -9
8 8 8 7 7 7 7 6 5 3 2 2 1 1 0 0 0 0 -0 -1 -1 -1 -1 -1 -1 -2 -3 -3 -3 -3 -4 -4 -4 -5 -5 -5 -6 -6 -6 -7 -7 -7 -8 -9
9 8 8 7 7 6 4 4 4 2 1 2 1 0 -0 -1 -2 -1 -1 -1 -1 -1 -1 -1 -2 -3 -3 -4 -4 -4 -4 -5 -4 -5 -6 -6 -6 -6 -7 -7 -8 -8 -8 -9
7 6 6 6 6 4 3 3 3 2 1 0 -0 -0 -0 -1 -1 -2 -2 -2 -2 -2 -2 -3 -3 -4 -4 -4 -4 -4 -5 -5 -5 -6 -6 -6 -6 -7 -7 -8 -8 -9 -9 -10
5 6 5 4 5 4 2 3 0 -0 -0 -0 -1 -1 -2 -2 -2 -2 -3 -2 -2 -3 -3 -3 -4 -3 -3 -3 -4 -4 -5 -5 -6 -6 -6 -6 -7 -7 -8 -8 -9 -9 -10 -10
3 4 3 2 2 3 3 2 -1 -1 -0 -1 -1 -1 -2 -1 -2 -2 -2 -2 -2 -3 -4 -4 -4 -3 -4 -4 -4 -5 -5 -5 -6 -6 -7 -7 -7 -8 -8 -8 -9 -10 -10 -11
3 2 3 3 2 1 1 2 1 -0 -1 -1 -1 -2 -2 -2 -1 -1 -2 -2 -3 -4 -4 -4 -4 -3 -4 -4 -5 -5 -5 -5 -6 -7 -7 -7 -8 -8 -9 -9 -9 -10 -10 -11
4 3 3 3 2 2 2 1 -0 -1 -2 -1 -1 -2 -2 -2 -2 -2 -2 -3 -3 -4 -4 -4 -4 -4 -5 -6 -5 -5 -5 -5 -6 -7 -7 -7 -8 -8 -9 -9 -10 -10 -11 -11
3 3 3 4 2 1 1 1 -0 -1 -2 -1 -2 -2 -2 -2 -2 -2 -2 -3 -3 -3 -3 -4 -4 -4 -6 -6 -5 -5 -5 -6 -6 -6 -7 -7 -8 -8 -9 -9 -10 -10 -11 -11
3 3 3 2 1 1 1 -0 -1 -2 -1 -1 -2 -2 -2 -3 -3 -3 -3 -3 -3 -3 -4 -3 -3 -4 -4 -5 -5 -5 -5 -6 -6 -6 -7 -7 -8 -8 -9 -9 -10 -11 -11 -12
2 3 2 1 1 1 -0 -1 -1 -1 -1 -2 -1 -2 -2 -3 -3 -3 -3 -3 -3 -4 -4 -3 -4 -4 -4 -4 -5 -5 -5 -6 -6 -7 -7 -8 -8 -8 -9 -10 -10 -11 -11 -12
2 2 1 1 1 -0 -1 -1 -1 -1 -0 -1 -1 -2 -3 -4 -4 -4 -4 -3 -4 -4 -4 -4 -4 -4 -4 -4 -5 -5 -5 -6 -6 -7 -8 -8 -8 -9 -9 -10 -10 -11 -11 -12

GFSNGP_925_temp_012.txt.gz
Temp
13 14 15 15 15 15 14 13 11 14 14 15 13 13 12 12 12 12 12 11 10 9 10 10 10 9 9 8 7 8 8 7 5 5 4 4 4 4 3 4 4 4 4 3
12 13 13 13 14 13 13 13 13 13 14 13 12 12 12 12 12 12 11 11 11 10 10 9 9 9 8 7 6 6 7 5 4 3 3 2 2 3 3 4 3 3 3 2
14 10 10 11 12 13 14 14 13 12 13 12 12 12 11 12 11 11 10 10 10 9 9 9 8 7 7 5 4 4 4 3 3 3 2 3 3 3 3 3 3 2 1 1
11 10 11 14 14 15 14 13 13 13 12 11 12 12 12 11 11 10 11 10 10 9 8 8 7 7 6 5 5 4 4 3 3 3 3 3 3 3 3 2 1 1 0 -1
9 11 12 13 14 15 13 12 12 11 12 12 13 11 11 12 11 10 10 9 9 9 8 7 6 6 5 5 6 5 4 4 4 4 4 3 3 2 1 1 0 -0 -1 -2
9 10 11 11 14 14 14 10 12 12 11 12 12 10 11 9 9 10 10 9 8 7 6 6 6 5 5 5 5 4 4 4 4 3 2 2 1 1 -0 -1 -1 -2 -2 -3
4 8 8 11 13 14 9 12 11 12 12 10 10 9 9 8 9 10 9 7 5 5 5 5 5 5 5 4 4 4 4 3 2 2 1 1 0 -1 -1 -2 -2 -3 -3 -4
7 8 10 13 13 12 11 11 12 11 10 9 8 8 8 9 7 6 5 4 4 4 4 4 4 4 4 4 4 3 3 2 1 1 -0 -1 -1 -2 -2 -2 -3 -4 -4 -5
9 9 11 12 13 11 11 11 10 10 9 8 8 8 7 6 6 5 4 3 3 3 4 5 5 5 5 3 3 3 2 1 0 -1 -1 -2 -2 -3 -3 -4 -4 -4 -5 -6
10 12 12 12 13 12 11 10 8 8 8 7 7 7 6 5 5 4 3 3 3 3 3 3 4 4 4 3 2 1 0 -0 -2 -2 -3 -3 -3 -3 -4 -4 -5 -5 -5 -6
11 11 11 12 11 11 10 9 8 8 7 7 7 6 5 4 3 3 3 3 2 1 2 3 4 3 2 1 1 1 -1 -2 -3 -3 -3 -3 -4 -4 -4 -4 -5 -5 -5 -6
11 12 11 12 11 10 8 8 8 8 7 7 6 5 4 3 3 3 3 1 2 3 3 3 3 1 1 0 -0 -1 -2 -3 -3 -4 -4 -4 -4 -5 -4 -5 -5 -5 -6 -7
12 11 11 10 9 9 8 8 9 9 7 6 5 4 3 2 3 3 3 3 3 3 2 1 1 0 -0 -1 -1 -2 -2 -3 -3 -4 -4 -4 -5 -5 -6 -5 -5 -6 -6 -7
11 11 9 9 8 8 7 8 9 8 6 5 4 3 2 2 3 2 2 2 2 2 1 0 0 -1 -1 -2 -2 -2 -3 -3 -3 -4 -5 -5 -5 -5 -6 -6 -7 -7 -7 -8
10 9 8 8 9 8 9 8 7 6 5 3 3 2 2 1 1 1 1 1 1 1 0 -1 -1 -1 -2 -2 -2 -3 -3 -4 -4 -5 -5 -5 -5 -6 -6 -7 -7 -7 -8 -8
8 8 8 7 7 7 7 6 6 5 3 3 2 2 2 1 0 0 0 -0 -1 -2 -1 -2 -2 -2 -2 -3 -3 -4 -4 -4 -5 -5 -5 -6 -6 -6 -7 -7 -7 -8 -9 -9
5 4 4 4 5 5 5 4 3 2 2 2 2 2 1 -0 -1 -0 -0 -1 -2 -2 -2 -2 -2 -3 -3 -3 -4 -5 -5 -4 -5 -5 -6 -6 -6 -7 -7 -8 -8 -8 -9 -10
6 6 6 5 5 4 2 3 2 1 1 1 0 -0 -2 -3 -2 -1 -2 -2 -2 -2 -3 -4 -3 -3 -3 -4 -4 -5 -5 -5 -5 -6 -6 -6 -7 -7 -7 -8 -8 -9 -10 -10
6 6 6 5 5 3 2 1 2 2 1 0 -1 -1 -2 -1 -1 -2 -3 -3 -2 -3 -3 -3 -4 -3 -3 -4 -4 -4 -5 -5 -6 -6 -6 -7 -7 -7 -8 -8 -9 -9 -10 -11
5 4 4 4 5 3 1 3 2 0 -0 -1 -1 -2 -2 -1 -2 -3 -3 -3 -2 -3 -4 -4 -4 -3 -4 -4 -4 -4 -5 -6 -6 -6 -7 -7 -7 -8 -8 -9 -9 -10 -10 -11
2 3 3 2 2 3 2 2 1 -1 -1 -1 -2 -2 -2 -1 -2 -2 -3 -3 -2 -3 -4 -4 -4 -4 -4 -4 -4 -5 -5 -5 -6 -6 -7 -7 -8 -8 -9 -9 -10 -10 -11 -11
3 2 1 1 1 1 2 2 1 1 0 -1 -2 -2 -3 -2 -2 -2 -2 -2 -3 -4 -4 -4 -4 -4 -4 -5 -5 -5 -5 -5 -6 -6 -7 -7 -8 -8 -9 -9 -10 -10 -11 -11
2 2 2 2 1 1 1 1 2 1 -0 -1 -2 -2 -3 -2 -2 -3 -4 -2 -3 -4 -4 -4 -4 -4 -5 -6 -6 -5 -5 -5 -6 -6 -7 -7 -8 -8 -9 -9 -10 -10 -11 -12
2 2 1 2 2 -1 -2 1 1 0 -1 -1 -2 -2 -2 -3 -2 -2 -2 -3 -3 -4 -4 -4 -4 -4 -5 -5 -6 -5 -5 -5 -6 -6 -7 -7 -8 -8 -9 -9 -10 -11 -11 -12
1 1 1 0 -1 -1 0 0 -1 -1 -2 -2 -2 -2 -3 -3 -3 -3 -3 -3 -3 -4 -4 -4 -4 -4 -4 -5 -5 -5 -5 -6 -6 -6 -7 -7 -8 -8 -9 -9 -10 -11 -11 -12
1 1 1 1 1 1 1 -1 -1 -2 -2 -2 -2 -2 -2 -3 -3 -4 -4 -4 -4 -4 -4 -4 -4 -5 -5 -4 -4 -5 -5 -5 -6 -6 -7 -8 -8 -8 -9 -9 -10 -11 -11 -12
0 0 -0 1 0 0 -0 -1 -2 -2 -1 -2 -2 -2 -2 -3 -4 -4 -4 -4 -4 -4 -4 -5 -5 -5 -5 -5 -5 -5 -5 -5 -6 -6 -7 -8 -8 -8 -9 -9 -10 -10 -11 -12

GFSNGP_925_temp_015.txt.gz
Temp
12 13 13 13 13 14 13 12 12 13 13 13 12 12 11 11 11 12 12 11 10 10 9 10 9 9 9 8 7 6 5 5 4 4 3 3 2 2 2 1 3 3 3 3
11 12 12 12 13 12 12 12 11 11 12 13 12 11 10 10 11 11 10 10 9 10 10 9 9 9 8 7 6 5 4 4 3 3 2 1 1 2 2 2 2 2 2 1
10 9 9 10 11 12 13 13 13 11 12 12 11 10 11 11 11 10 10 10 10 9 9 9 8 7 6 6 5 5 4 4 4 3 2 2 2 2 2 2 2 1 1 -0
10 10 11 14 14 14 12 13 12 12 12 11 10 11 11 10 9 8 9 10 9 10 8 7 6 6 6 5 5 4 4 4 3 3 3 3 3 2 2 1 0 -0 -1 -2
10 10 11 13 13 14 13 12 12 11 11 11 11 9 10 8 8 8 8 9 9 7 5 6 6 6 5 4 4 4 3 4 4 3 3 2 1 1 0 -0 -1 -2 -2 -3
9 10 10 11 13 14 12 10 11 11 10 10 9 9 10 7 8 8 8 7 6 5 5 4 5 4 4 3 4 4 4 3 3 2 2 1 0 -0 -1 -2 -2 -3 -3 -4
8 10 8 10 11 13 10 11 11 11 11 8 8 9 7 7 7 7 6 5 4 3 2 3 4 4 2 2 3 3 3 2 2 1 0 -0 -1 -2 -2 -3 -3 -4 -4 -4
7 7 9 11 13 11 10 10 10 9 9 9 8 7 7 7 6 6 5 4 3 3 2 3 4 4 4 3 3 2 2 1 1 -0 -1 -2 -2 -3 -3 -3 -4 -4 -5 -5
9 9 11 11 12 11 11 10 9 9 8 8 7 7 7 6 5 4 4 3 3 3 3 2 3 4 3 3 3 2 1 0 -1 -2 -2 -3 -3 -3 -4 -4 -5 -5 -5 -6
10 11 12 12 12 13 11 9 8 8 7 7 7 7 6 5 3 3 2 2 2 1 1 2 2 2 2 2 1 1 -0 -1 -2 -3 -3 -4 -4 -4 -5 -5 -5 -6 -6 -7
10 11 11 11 11 10 9 7 7 6 6 6 7 6 5 3 2 2 2 2 2 2 2 2 3 2 1 0 -0 -1 -1 -2 -3 -3 -4 -4 -4 -5 -5 -5 -5 -6 -6 -6
10 12 12 12 9 8 7 6 6 6 6 7 6 4 4 2 3 2 2 2 2 2 2 2 1 1 0 -0 -1 -2 -2 -3 -3 -3 -4 -4 -4 -5 -5 -5 -6 -6 -6 -7
12 12 11 9 7 7 7 7 7 6 7 6 6 5 4 2 3 3 2 2 2 1 1 1 0 -0 -1 -1 -2 -3 -3 -3 -3 -4 -5 -5 -5 -5 -6 -6 -6 -6 -7 -7
11 10 8 6 4 6 6 7 7 7 7 6 5 4 3 2 2 2 1 1 1 1 1 -0 -1 -1 -1 -2 -2 -3 -3 -4 -4 -5 -5 -5 -5 -6 -6 -7 -8 -7 -8 -8
8 8 7 7 7 7 6 6 4 5 5 4 4 4 3 1 1 1 1 1 0 -0 -1 -1 -2 -2 -2 -3 -3 -3 -4 -4 -5 -5 -5 -5 -6 -6 -7 -7 -8 -8 -9 -8
5 4 4 5 5 4 4 5 4 4 3 2 2 2 2 1 1 0 0 -0 -1 -2 -2 -2 -2 -2 -3 -3 -4 -4 -5 -5 -5 -5 -6 -6 -6 -7 -7 -7 -8 -9 -9 -10
4 3 3 3 3 4 4 4 2 1 1 0 1 1 0 0 -1 -0 0 -1 -2 -2 -3 -3 -3 -3 -3 -3 -4 -4 -5 -5 -5 -5 -6 -6 -7 -7 -7 -8 -9 -9 -10 -10
6 5 5 4 3 3 2 2 2 1 1 2 -0 -2 -1 -2 -2 -2 -1 -2 -2 -3 -3 -4 -4 -3 -3 -4 -4 -4 -4 -5 -5 -6 -6 -7 -7 -7 -8 -8 -9 -9 -10 -10
5 5 5 5 4 3 3 2 2 2 2 0 -1 -1 -1 -2 -2 -2 -3 -3 -3 -4 -3 -4 -4 -4 -3 -4 -4 -4 -5 -5 -6 -6 -6 -7 -7 -8 -8 -8 -9 -10 -10 -11
4 4 4 3 4 3 1 2 1 -0 -0 -2 -0 -1 -1 -3 -2 -3 -3 -3 -3 -3 -3 -4 -4 -4 -4 -4 -5 -6 -5 -5 -6 -6 -7 -7 -8 -8 -8 -9 -10 -10 -11 -11
2 2 2 1 1 2 1 1 0 -1 1 1 0 -1 -2 -2 -2 -3 -3 -4 -3 -3 -4 -4 -4 -4 -4 -5 -5 -5 -5 -5 -6 -6 -7 -7 -8 -8 -9 -9 -10 -10 -11 -11
2 1 1 1 -0 -0 1 2 1 0 -0 1 1 -1 -2 -2 -3 -3 -3 -3 -3 -3 -4 -4 -5 -5 -5 -5 -6 -5 -5 -5 -5 -6 -6 -7 -8 -8 -9 -9 -10 -10 -11 -11
1 1 1 1 -0 0 0 0 1 -0 -1 0 -0 -1 -3 -2 -3 -4 -5 -2 -3 -3 -4 -4 -4 -4 -4 -5 -5 -5 -5 -5 -5 -6 -6 -7 -7 -8 -9 -9 -10 -10 -11 -11
1 1 0 1 0 -1 -3 -0 0 -0 -0 -1 -2 -2 -2 -3 -3 -3 -2 -3 -3 -3 -4 -4 -4 -4 -4 -4 -5 -5 -5 -5 -6 -6 -6 -6 -7 -8 -9 -9 -10 -10 -11 -12
1 1 -0 -1 -2 -1 -0 -0 -0 -1 -1 -2 -2 -2 -2 -2 -3 -3 -3 -4 -4 -4 -4 -5 -5 -4 -4 -5 -5 -5 -5 -5 -6 -6 -6 -7 -7 -8 -8 -9 -10 -10 -11 -11
0 -0 -0 -1 -1 -1 -1 -1 -1 -1 -1 -2 -2 -2 -2 -2 -3 -3 -4 -4 -4 -4 -4 -5 -5 -5 -5 -5 -5 -5 -5 -5 -5 -6 -6 -7 -7 -8 -8 -9 -10 -10 -11 -11
-1 -1 -0 -1 -0 -1 -1 -1 -1 -1 -2 -2 -2 -1 -2 -3 -3 -4 -4 -4 -4 -5 -5 -5 -5 -5 -6 -6 -6 -6 -5 -5 -5 -5 -6 -6 -7 -8 -8 -9 -9 -10 -11 -11

GFSNGP_925_temp_021.txt.gz
Temp
13 14 13 13 13 13 13 14 13 15 15 16 16 14 14 14 13 12 13 11 11 11 10 9 8 7 6 5 5 5 4 4 3 2 2 2 1 1 1 1 1 1 1 0
11 11 11 11 13 13 13 13 13 13 14 15 13 13 12 13 12 12 10 10 10 9 8 7 6 5 4 4 4 4 4 3 3 2 2 2 1 2 1 1 1 0 -0 -1
12 10 10 12 13 12 13 12 14 14 16 13 12 12 13 12 11 9 9 9 8 8 6 5 4 3 3 3 3 3 3 3 3 2 2 2 1 1 1 0 -1 -1 -1 -2
11 9 13 15 14 14 14 14 14 13 13 13 13 13 12 11 9 8 8 8 7 6 5 4 3 3 2 3 3 3 3 2 2 1 1 1 1 0 -1 -1 -2 -2 -2 -3
10 11 12 14 15 14 13 14 14 12 12 13 13 11 13 8 8 8 8 7 6 5 4 3 3 3 3 3 3 3 2 2 1 0 0 -0 -0 -1 -2 -2 -2 -3 -3 -4
9 11 12 13 13 13 13 13 12 13 12 12 12 9 11 7 6 7 8 6 5 4 3 3 3 2 3 3 2 1 1 1 1 0 -1 -1 -2 -2 -3 -3 -3 -4 -4 -5
10 10 11 12 12 12 12 13 12 11 11 11 10 9 6 5 7 7 6 5 4 3 3 3 2 2 3 3 2 1 1 1 -0 -1 -2 -2 -3 -3 -3 -3 -4 -5 -5 -5
8 9 10 11 12 12 13 12 12 11 11 9 6 5 5 7 7 7 6 5 4 3 3 2 2 2 2 2 2 1 1 -0 -1 -2 -3 -3 -3 -3 -4 -4 -5 -6 -6 -6
11 11 11 11 12 12 11 10 9 9 5 4 3 6 7 7 7 7 6 5 3 2 2 2 2 2 2 2 1 1 -0 -1 -2 -3 -3 -4 -4 -4 -4 -4 -5 -5 -5 -5
11 13 13 12 13 10 8 6 5 5 4 5 6 6 6 7 7 6 5 4 3 2 2 2 2 2 1 1 0 -1 -1 -2 -2 -3 -3 -4 -4 -4 -5 -5 -5 -5 -6 -6
10 12 12 11 9 7 5 4 5 6 6 6 6 6 6 6 6 5 4 3 3 2 2 2 2 1 0 0 -1 -1 -2 -3 -3 -4 -4 -4 -5 -5 -5 -6 -6 -6 -6 -7
11 12 11 8 6 5 4 5 6 6 6 6 6 6 5 5 4 3 3 3 2 2 2 1 1 0 -0 -1 -2 -2 -3 -3 -4 -4 -5 -5 -5 -5 -6 -6 -7 -7 -8 -8
12 10 7 5 4 4 5 6 6 6 6 5 5 4 4 3 3 2 2 2 2 2 1 0 -0 -1 -1 -1 -2 -3 -3 -4 -4 -5 -5 -5 -6 -6 -6 -7 -7 -7 -8 -9
7 7 5 5 5 5 6 6 6 5 5 4 4 3 2 2 1 1 1 1 0 0 0 -1 -1 -2 -2 -2 -3 -3 -4 -4 -5 -5 -6 -6 -6 -6 -7 -7 -8 -8 -9 -9
5 6 5 5 6 6 6 6 5 5 4 3 3 2 2 2 1 0 -1 -1 -1 -1 -1 -2 -2 -2 -3 -3 -4 -4 -4 -5 -5 -5 -6 -6 -7 -7 -7 -8 -8 -8 -9 -10
4 5 5 6 6 5 5 5 4 4 3 3 2 1 1 -1 -2 -2 -1 -1 -2 -1 -2 -3 -4 -4 -4 -4 -5 -4 -5 -5 -5 -6 -6 -6 -7 -7 -7 -8 -8 -9 -9 -10
5 5 5 4 4 4 4 3 3 2 2 1 1 0 -1 -2 -1 -1 0 1 -1 -2 -3 -4 -4 -4 -5 -4 -5 -5 -5 -5 -5 -6 -6 -7 -7 -7 -8 -8 -9 -9 -10 -11
6 5 4 3 3 3 3 2 1 1 0 1 -0 -1 -3 -3 -2 -0 1 0 -1 -3 -3 -4 -4 -4 -4 -4 -5 -5 -6 -6 -6 -6 -6 -7 -7 -8 -9 -9 -9 -10 -10 -11
4 3 2 2 2 1 1 1 0 0 -0 -1 -2 -2 -3 -3 -2 -1 -1 -2 -3 -4 -3 -4 -4 -4 -5 -4 -5 -5 -5 -6 -6 -6 -6 -7 -7 -8 -9 -9 -9 -10 -11 -11
2 2 2 2 2 1 -0 0 -0 -2 -1 -2 -2 -4 -3 -2 -2 -2 -2 -3 -4 -3 -4 -4 -4 -5 -5 -5 -5 -6 -6 -6 -6 -6 -6 -7 -8 -8 -9 -9 -9 -10 -11 -11
1 1 1 1 0 1 0 -0 -1 -2 -2 -2 -4 -3 -3 -3 -2 -2 -3 -3 -3 -3 -4 -4 -4 -4 -5 -5 -5 -5 -6 -6 -6 -6 -6 -7 -7 -8 -9 -9 -9 -10 -11 -11
1 1 0 0 -1 -1 0 -1 -2 -2 -2 -2 -2 -2 -2 -2 -2 -2 -3 -3 -3 -3 -3 -3 -4 -4 -5 -5 -5 -5 -6 -6 -6 -6 -6 -7 -7 -8 -8 -9 -9 -10 -10 -11
0 0 -0 -0 -1 -1 -1 -2 -1 -1 -2 -3 -2 -2 -2 -2 -3 -3 -3 -2 -3 -4 -4 -4 -4 -4 -5 -5 -5 -5 -6 -6 -6 -6 -6 -6 -7 -7 -8 -8 -9 -9 -10 -11
0 0 -0 -0 -1 -2 -3 -1 -2 -2 -3 -2 -2 -2 -3 -3 -3 -3 -3 -3 -3 -4 -4 -4 -4 -4 -5 -5 -5 -5 -6 -6 -6 -6 -6 -6 -6 -7 -7 -8 -8 -9 -10 -10
0 -0 -1 -1 -2 -1 -2 -2 -2 -2 -2 -1 -1 -2 -2 -3 -3 -3 -3 -3 -3 -4 -4 -4 -4 -5 -5 -5 -6 -6 -6 -7 -7 -6 -6 -6 -6 -6 -7 -8 -8 -9 -9 -10
-1 -1 -1 -2 -2 -2 -2 -2 -3 -2 -2 -1 -1 -2 -2 -3 -3 -3 -3 -3 -3 -4 -4 -4 -5 -5 -5 -6 -6 -6 -7 -7 -7 -7 -7 -6 -6 -6 -7 -7 -8 -8 -9 -10
-0 -1 -2 -2 -2 -2 -1 -2 -3 -2 -1 -1 -2 -2 -2 -2 -3 -3 -4 -4 -4 -4 -5 -5 -5 -5 -6 -6 -6 -7 -7 -7 -8 -8 -7 -7 -7 -7 -7 -7 -8 -8 -9 -10

GFSNGP_925_temp_024.txt.gz
Temp
19 19 19 18 18 18 18 18 16 18 19 20 20 20 19 17 17 17 16 15 14 13 13 11 10 9 8 7 7 7 7 7 6 5 3 2 2 2 3 3 3 3 2 2
15 17 17 16 18 18 18 18 18 18 18 20 19 18 17 16 16 16 15 14 12 11 11 10 9 8 7 7 6 6 6 6 5 4 3 3 3 3 3 3 3 2 2 2
15 14 14 14 17 18 18 18 17 17 19 18 18 17 16 16 15 15 13 11 11 11 10 9 8 7 7 6 6 6 6 5 5 4 4 4 3 3 3 2 2 2 1 1
12 12 15 18 19 18 17 18 19 18 18 17 17 16 16 16 13 12 9 9 11 10 9 8 7 7 6 6 6 5 5 5 4 4 3 3 3 2 2 2 1 1 1 -0
12 13 16 17 18 17 16 16 18 16 16 16 16 15 16 12 9 7 7 8 10 9 8 7 7 7 6 6 6 5 4 3 3 3 3 2 2 2 1 1 1 0 -1 -1
11 12 13 18 17 16 16 16 16 15 14 14 11 9 11 7 6 6 7 10 9 8 8 8 7 6 6 6 5 5 4 4 3 2 2 2 1 1 0 0 -0 -1 -2 -3
12 12 14 17 15 15 13 14 14 14 13 10 10 8 6 5 6 9 10 9 9 8 8 7 6 5 5 5 5 5 4 3 3 2 2 1 1 0 -0 -1 -1 -3 -4 -4
10 11 12 16 15 13 14 14 14 13 11 8 5 5 6 8 9 10 10 10 9 8 8 7 6 5 5 5 5 4 3 3 2 1 1 0 0 -0 -0 -1 -2 -4 -4 -4
15 15 18 17 15 15 15 13 11 7 5 5 5 7 9 10 10 10 10 9 8 8 7 6 6 5 5 5 4 3 3 2 2 1 0 0 -0 -1 -1 -2 -3 -4 -4 -4
14 16 17 16 16 11 10 7 6 6 6 7 8 9 9 10 10 10 9 8 7 7 7 6 6 5 5 4 3 3 2 2 1 1 -0 -0 -1 -1 -2 -3 -4 -4 -4 -5
14 15 14 14 11 8 5 5 6 8 8 8 9 9 9 9 9 8 7 7 6 6 6 6 5 5 4 3 2 2 1 1 0 -0 -1 -1 -2 -2 -3 -4 -5 -6 -5 -6
12 13 11 9 5 5 5 6 8 8 9 9 9 9 8 8 7 7 6 5 5 5 5 5 5 4 3 2 1 1 0 -0 -0 -2 -1 -2 -2 -3 -4 -5 -6 -7 -8 -8
11 11 8 5 4 4 7 8 8 9 9 9 8 7 7 7 6 5 5 5 5 4 4 4 3 3 1 -0 -1 -2 -2 -2 -2 -3 -2 -2 -3 -3 -4 -4 -6 -7 -8 -9
9 8 5 5 4 7 8 9 8 8 8 7 7 6 6 6 5 5 5 4 2 2 2 1 0 -0 -1 -2 -2 -3 -4 -3 -3 -3 -3 -4 -4 -4 -5 -5 -5 -5 -6 -8
7 8 7 7 8 9 8 8 8 8 7 7 6 6 5 5 4 4 3 2 1 2 2 1 -0 -2 -3 -3 -3 -3 -3 -3 -4 -4 -4 -5 -5 -5 -5 -5 -6 -5 -6 -7
8 8 8 8 8 8 8 8 7 7 6 5 5 4 3 3 3 2 2 2 1 2 1 -2 -3 -3 -4 -4 -4 -3 -3 -4 -4 -4 -4 -4 -4 -5 -5 -5 -5 -5 -6 -7
8 8 8 7 7 7 7 6 5 5 4 3 3 2 0 -1 -1 0 1 1 0 -0 -2 -3 -3 -4 -4 -4 -4 -3 -3 -4 -4 -4 -4 -5 -5 -5 -5 -6 -6 -6 -6 -8
8 7 7 7 6 6 5 5 4 3 3 2 -0 -1 -1 -1 -1 -1 -1 -1 -1 -2 -3 -4 -4 -4 -4 -4 -4 -4 -4 -5 -5 -5 -5 -5 -5 -5 -6 -6 -6 -6 -7 -8
7 6 6 5 5 4 4 3 3 1 -0 -1 -1 -1 -2 -2 -2 -2 -2 -2 -1 -2 -2 -4 -4 -4 -4 -5 -5 -4 -5 -5 -5 -4 -5 -5 -5 -5 -6 -6 -6 -7 -7 -8
6 5 5 4 3 2 1 1 0 0 -0 -1 -2 -2 -1 -1 -1 -2 -2 -1 -2 -2 -3 -4 -4 -4 -4 -5 -5 -4 -5 -5 -5 -5 -5 -5 -5 -5 -6 -6 -7 -7 -7 -8
4 4 2 1 1 1 1 0 -1 -1 -1 -2 -2 -2 -2 -2 -2 -2 -1 -1 -2 -3 -4 -4 -3 -3 -4 -4 -5 -5 -5 -5 -5 -4 -4 -4 -5 -5 -6 -6 -7 -7 -7 -8
4 3 1 1 0 0 0 -0 -1 -1 -2 -2 -2 -2 -2 -1 -2 -2 -2 -3 -3 -3 -4 -3 -3 -4 -4 -5 -4 -5 -5 -5 -5 -5 -5 -5 -5 -5 -5 -6 -6 -7 -8 -8
3 2 2 1 -0 0 -0 -1 -1 -2 -2 -2 -2 -2 -2 -1 -2 -2 -1 -2 -3 -3 -4 -3 -4 -4 -4 -5 -5 -5 -5 -5 -5 -5 -5 -5 -5 -5 -6 -6 -6 -7 -8 -8
3 2 2 1 -0 -1 -1 1 -0 -1 -2 -2 -2 -1 -1 -2 -2 -3 -3 -3 -3 -3 -4 -4 -4 -4 -4 -5 -5 -5 -5 -5 -5 -5 -5 -5 -5 -6 -6 -6 -7 -7 -8 -9
1 1 0 -1 0 2 2 1 0 -0 -2 -2 -2 -1 -2 -3 -3 -2 -3 -3 -3 -3 -4 -4 -4 -5 -5 -5 -5 -5 -6 -6 -6 -6 -6 -6 -6 -5 -6 -6 -7 -7 -8 -9
2 2 2 1 1 1 1 0 -0 -1 -2 -2 -1 -1 -2 -2 -3 -3 -3 -3 -3 -4 -4 -4 -4 -4 -5 -5 -5 -6 -6 -6 -7 -7 -7 -7 -6 -6 -6 -6 -7 -8 -8 -9
1 1 1 1 1 0 -1 -1 -2 -1 -1 -2 -2 -2 -2 -2 -3 -3 -3 -4 -4 -4 -4 -4 -5 -5 -5 -5 -5 -6 -7 -7 -7 -8 -8 -7 -7 -7 -7 -7 -7 -7 -8 -9

GFSNGP_925_temp_027.txt.gz
Temp
21 22 22 22 21 21 21 21 19 20 21 22 22 21 21 21 19 19 19 18 17 16 15 14 13 11 11 10 9 9 8 9 8 5 5 4 4 4 4 4 5 5 4 4
17 20 21 20 21 21 21 21 20 20 20 21 21 21 20 20 19 19 17 16 14 13 12 12 12 11 10 10 9 9 8 8 7 6 5 5 5 5 5 4 4 4 4 3
16 17 16 16 19 20 21 21 20 18 20 21 20 19 18 16 16 15 12 13 12 10 11 11 11 10 10 9 9 9 8 8 6 6 5 5 4 4 4 4 4 3 3 3
13 12 15 21 22 21 20 20 20 20 20 20 19 17 17 14 12 12 11 9 9 9 11 11 10 10 10 9 9 9 8 7 6 5 4 4 4 4 4 3 3 3 2 2
13 16 18 19 20 19 18 18 20 19 18 18 17 16 16 12 10 9 8 8 9 11 11 10 10 10 9 9 9 8 8 7 5 5 5 4 4 4 3 3 2 2 1 0
12 13 14 19 20 18 18 16 18 17 17 16 15 13 11 6 7 8 8 10 12 11 11 11 11 10 9 8 8 8 7 6 5 5 4 4 4 3 3 2 2 1 -1 -2
13 13 16 19 18 18 15 15 16 16 12 10 9 8 7 6 7 9 11 12 12 12 12 11 10 10 9 9 8 8 7 6 5 5 4 4 3 2 2 2 1 -2 -3 -3
12 12 13 18 18 14 15 16 13 13 9 8 8 7 7 9 12 12 12 12 12 11 11 10 10 9 9 8 8 7 6 5 4 4 3 3 2 2 2 1 0 -2 -3 -3
16 16 19 19 17 15 15 13 11 7 7 7 8 10 11 11 12 12 12 11 11 10 9 9 8 8 8 7 6 5 5 4 4 3 3 3 2 2 1 0 -1 -3 -3 -3
15 17 18 17 16 13 11 10 8 8 9 10 10 11 11 12 12 11 11 10 9 9 8 8 8 8 7 7 5 4 4 3 2 2 2 1 1 1 0 -1 -3 -3 -3 -4
15 17 16 12 9 8 8 6 7 9 10 11 11 11 11 11 10 10 9 9 8 8 8 7 7 7 6 6 4 4 2 0 1 2 1 -0 0 -0 -1 -2 -4 -4 -5 -5
13 12 11 9 7 7 6 9 10 10 11 11 11 11 10 10 9 9 8 7 7 7 7 6 6 5 4 3 3 2 -0 -0 1 0 -0 -1 -1 -1 -2 -3 -4 -5 -6 -7
14 9 7 6 6 6 9 10 10 10 10 11 10 9 9 9 8 7 7 7 7 6 5 5 4 3 2 0 -1 -2 -2 -1 -0 -1 -2 -2 -2 -2 -3 -3 -5 -5 -7 -7
10 8 5 5 7 9 10 10 10 10 10 10 9 8 8 7 6 6 6 6 5 5 4 3 3 2 0 -1 -2 -2 -3 -2 -2 -2 -3 -3 -3 -4 -4 -4 -4 -4 -6 -7
8 9 10 10 10 11 11 10 10 10 9 8 7 7 6 5 5 5 4 4 3 3 3 3 2 -0 -1 -2 -2 -2 -2 -2 -3 -4 -4 -4 -4 -4 -4 -4 -4 -4 -4 -5
10 11 11 10 10 10 10 10 9 8 8 7 6 5 4 3 3 2 2 2 1 1 1 -0 -1 -2 -2 -3 -2 -2 -1 -3 -3 -4 -4 -4 -4 -4 -4 -4 -5 -4 -4 -5
10 9 9 9 9 9 9 8 7 6 5 5 4 2 1 0 -0 1 0 -0 -1 -2 -1 -1 -2 -2 -3 -3 -3 -2 -2 -3 -4 -4 -4 -4 -4 -4 -5 -5 -5 -5 -5 -7
10 9 9 9 8 8 8 6 5 5 4 3 1 -0 -1 -1 -1 -1 -1 -1 -2 -1 -1 -1 -3 -3 -4 -3 -3 -2 -3 -4 -4 -4 -4 -4 -4 -4 -5 -5 -5 -5 -5 -6
9 8 8 8 7 6 5 5 4 3 1 1 -0 -1 -1 -1 -1 -1 -1 -2 -1 -1 -2 -3 -4 -4 -3 -3 -4 -3 -4 -4 -4 -4 -4 -4 -4 -4 -4 -5 -5 -5 -6 -6
7 7 7 6 5 3 3 2 2 2 2 1 -0 -1 -1 -1 -1 -1 -1 -1 -1 -1 -3 -3 -4 -4 -4 -3 -4 -4 -4 -4 -4 -4 -4 -4 -4 -4 -4 -5 -5 -5 -6 -6
5 5 5 3 2 2 2 2 1 0 1 -0 -1 -1 -2 -2 -2 -1 -1 0 -1 -3 -3 -3 -3 -2 -2 -4 -4 -4 -4 -4 -4 -4 -4 -4 -4 -4 -4 -5 -5 -5 -6 -6
6 5 4 3 2 1 1 1 1 1 -0 -1 -2 -2 -2 -1 -0 -1 -1 -1 -1 -2 -3 -3 -3 -3 -3 -4 -3 -4 -4 -4 -4 -4 -4 -4 -4 -4 -4 -4 -5 -5 -6 -6
5 4 4 3 2 2 2 1 1 0 -1 -1 -1 -2 -2 -1 -1 -1 -1 -1 -2 -2 -3 -3 -3 -3 -4 -4 -4 -4 -4 -4 -4 -4 -4 -4 -4 -4 -4 -5 -5 -5 -6 -6
4 4 4 3 2 1 0 3 3 2 1 0 -1 -1 -1 -2 -1 -1 -2 -2 -2 -3 -3 -3 -3 -3 -4 -4 -4 -4 -4 -4 -5 -5 -5 -5 -5 -5 -5 -5 -5 -6 -6 -7
4 3 2 2 2 3 4 4 3 2 1 -0 -1 -1 -1 -1 -1 -2 -2 -2 -3 -3 -3 -3 -3 -4 -4 -4 -4 -4 -4 -5 -5 -5 -6 -6 -6 -5 -5 -5 -5 -6 -6 -7
4 4 4 4 3 3 3 2 1 0 -0 -1 -0 -1 -1 -1 -2 -2 -2 -2 -3 -3 -3 -3 -3 -4 -4 -4 -4 -4 -5 -5 -6 -6 -6 -7 -6 -6 -6 -6 -6 -6 -6 -7
4 4 3 3 4 3 2 0 -1 -1 -1 -1 -1 -2 -2 -2 -2 -2 -2 -2 -3 -3 -3 -3 -3 -4 -4 -4 -4 -5 -5 -5 -6 -6 -7 -7 -7 -7 -7 -7 -7 -6 -6 -7

GFSNGP_925_temp_030.txt.gz
Temp
22 22 22 22 22 22 22 21 19 20 21 22 21 21 21 19 18 18 17 16 15 14 14 13 13 12 12 11 10 10 9 9 9 7 6 5 5 5 5 5 4 4 4 4
17 22 21 20 20 21 22 21 22 21 20 22 22 20 18 18 16 16 14 13 13 13 12 11 11 12 11 11 10 9 9 9 9 7 6 6 5 5 5 4 4 4 4 3
16 16 15 16 18 21 21 21 21 18 20 21 18 17 17 16 15 14 12 12 12 11 11 11 11 12 10 10 10 10 9 9 9 7 6 5 5 5 4 4 4 3 3 3
13 12 15 21 21 21 20 20 20 20 20 18 17 17 15 13 12 11 11 11 10 10 10 11 12 11 11 11 10 9 9 9 8 7 6 5 5 5 4 4 3 3 2 1
13 15 18 19 20 18 18 17 19 18 17 16 15 15 13 11 9 9 10 10 10 11 12 12 12 12 11 11 10 9 9 9 8 7 6 5 5 4 3 3 3 2 1 -0
12 12 14 19 20 19 19 16 17 15 14 12 13 11 11 10 9 9 9 11 12 12 13 12 12 11 10 10 10 10 8 7 5 5 5 5 4 3 3 3 2 1 -0 -1
14 12 15 19 19 19 15 14 14 13 11 10 10 9 10 9 9 10 12 12 12 12 12 11 10 9 9 9 9 7 6 5 5 5 4 4 3 3 3 2 2 -0 -1 -2
13 12 13 19 17 13 15 15 13 12 10 10 10 9 10 11 12 12 12 12 11 11 10 10 9 9 9 9 8 7 6 5 4 2 3 3 3 3 2 2 1 -2 -3 -3
15 14 18 18 15 14 14 11 11 10 11 9 10 11 11 12 12 12 11 11 10 10 9 9 8 8 8 7 6 5 4 3 3 3 2 2 2 2 1 0 -1 -3 -3 -3
17 18 18 15 13 12 11 9 9 9 10 11 11 11 11 12 11 11 10 10 9 8 8 8 8 7 7 6 4 3 3 2 1 0 0 2 1 1 0 -1 -2 -3 -3 -4
17 18 18 12 11 9 8 8 9 10 11 11 11 11 11 11 10 10 9 9 8 8 8 8 7 6 5 4 3 2 0 0 -0 -0 1 -0 -0 -0 -1 -2 -2 -3 -4 -5
14 15 14 11 7 7 8 9 11 11 11 11 11 11 10 9 9 8 7 7 7 7 6 6 6 5 4 3 2 0 -1 -1 -1 -1 -1 -1 -1 -1 -2 -3 -3 -4 -5 -6
15 12 11 8 8 8 10 11 11 11 11 11 10 9 9 8 8 6 6 6 6 5 5 5 4 4 3 1 0 -1 -2 -1 -1 -1 -1 -2 -2 -3 -3 -3 -3 -4 -4 -6
11 9 7 7 9 9 10 11 11 11 10 10 9 8 7 6 6 5 5 4 4 3 3 2 2 1 -0 -0 -1 -1 -2 -2 -2 -2 -2 -3 -3 -3 -3 -4 -4 -4 -4 -5
10 10 10 10 10 11 11 11 10 10 9 8 8 6 5 5 4 4 3 3 2 1 1 -0 -1 -1 -1 -2 -2 -2 -2 -2 -2 -3 -3 -3 -4 -4 -4 -4 -4 -4 -4 -5
10 11 11 11 11 11 10 10 9 9 8 7 5 5 4 3 2 2 2 1 0 -0 -1 -2 -2 -1 -2 -2 -2 -2 -1 -2 -2 -3 -3 -3 -4 -4 -4 -4 -4 -4 -5 -5
10 10 10 9 10 9 9 9 8 7 5 5 4 3 1 0 -0 1 0 -0 -1 -1 -2 -2 -1 -2 -3 -3 -3 -2 -1 -2 -3 -4 -4 -4 -4 -4 -4 -4 -5 -5 -5 -6
11 10 10 9 9 8 8 7 5 5 4 3 2 1 -0 -1 -1 -1 -1 -1 -1 -2 -1 -1 -2 -2 -3 -3 -3 -3 -3 -3 -4 -4 -4 -4 -4 -4 -4 -5 -5 -5 -5 -6
10 9 9 8 8 6 5 5 4 3 3 2 2 0 -0 -1 -1 -1 -2 -2 -1 -1 -1 -3 -4 -3 -3 -3 -3 -4 -3 -4 -4 -4 -4 -4 -4 -4 -4 -4 -4 -5 -5 -5
8 8 7 6 5 4 3 3 2 2 2 2 1 -0 -1 -1 -1 -2 -2 -1 -1 -2 -2 -3 -3 -3 -3 -3 -3 -4 -4 -4 -4 -4 -4 -4 -4 -4 -4 -4 -4 -5 -5 -5
5 6 5 5 4 3 3 2 2 1 1 1 -0 -1 -1 -1 -2 -2 -1 -1 -0 -1 -3 -3 -3 -3 -2 -2 -3 -3 -4 -4 -4 -4 -4 -4 -4 -4 -4 -4 -4 -4 -5 -5
6 6 5 4 3 3 3 2 2 2 1 0 -0 -0 -1 -2 -2 -1 -1 -1 -1 -1 -2 -2 -3 -2 -3 -3 -3 -4 -4 -4 -4 -4 -4 -4 -4 -4 -4 -4 -4 -4 -5 -5
5 5 4 4 4 3 3 2 2 2 1 -0 -0 -0 -1 -1 -2 -2 -1 -1 -1 -2 -2 -2 -2 -3 -3 -3 -4 -4 -4 -4 -4 -4 -4 -4 -4 -4 -4 -4 -4 -4 -5 -5
5 4 4 4 3 3 1 2 2 3 3 2 0 -0 -1 -1 -2 -2 -1 -1 -1 -2 -2 -2 -2 -3 -3 -4 -4 -4 -4 -4 -4 -4 -4 -5 -5 -5 -5 -5 -4 -5 -5 -5
4 4 3 3 2 2 3 4 3 3 2 1 0 -0 -1 -1 -1 -1 -1 -2 -2 -2 -2 -3 -3 -3 -3 -4 -4 -4 -4 -4 -4 -5 -5 -5 -5 -6 -6 -6 -5 -5 -5 -5
4 4 4 4 4 4 3 3 2 1 -1 -1 -1 -1 -2 -2 -2 -2 -2 -2 -2 -2 -2 -2 -2 -3 -3 -4 -4 -4 -4 -4 -5 -5 -5 -6 -6 -6 -6 -6 -6 -6 -6 -5
4 4 4 4 4 3 3 2 -0 -1 -2 -2 -3 -2 -2 -2 -2 -3 -2 -2 -2 -2 -2 -3 -3 -3 -3 -3 -4 -4 -4 -4 -5 -5 -6 -6 -6 -7 -7 -7 -7 -7 -7 -6

GFSNGP_925_temp_033.txt.gz
Temp
18 19 20 20 18 18 18 18 16 16 18 18 17 15 15 14 15 13 12 12 11 10 10 10 11 11 11 11 10 10 10 9 9 9 7 6 5 5 5 4 4 4 4 3
16 17 16 17 16 17 18 20 19 18 17 15 15 15 14 13 13 12 11 10 10 10 10 10 10 11 11 11 11 10 10 9 9 9 7 6 5 5 4 4 4 4 3 2
12 12 12 12 16 18 18 18 18 16 16 15 13 12 11 10 10 10 9 9 9 8 9 10 10 11 11 11 10 10 8 9 8 7 6 5 5 4 4 4 3 3 2 1
8 9 11 17 18 17 17 17 16 15 14 13 12 10 9 8 8 8 8 8 8 9 9 10 11 10 10 9 9 9 9 8 7 6 5 4 2 4 4 3 3 3 1 0
10 10 13 16 18 17 16 14 14 13 12 11 11 11 8 9 8 7 7 8 9 10 9 10 10 9 9 9 8 8 7 7 5 4 3 1 2 1 3 3 3 2 1 -0
6 7 8 13 17 18 18 11 13 12 10 10 10 8 8 7 8 8 8 9 9 10 10 10 9 9 8 8 8 7 6 5 5 3 1 0 1 2 3 3 1 0 -1 -2
6 7 10 14 17 17 12 11 10 10 9 9 8 7 7 7 8 9 10 10 10 10 9 8 8 8 8 7 6 5 4 4 3 2 2 1 2 3 2 1 -0 -1 -2 -2
10 10 9 15 15 13 11 10 10 10 9 9 8 8 7 8 9 10 10 9 9 9 8 8 8 8 7 6 5 4 3 3 2 2 1 2 2 2 1 0 -1 -2 -2 -3
10 10 12 15 13 10 10 9 9 10 8 8 8 9 9 9 9 9 9 9 8 7 7 7 7 7 6 5 4 3 2 1 1 0 1 1 1 0 -0 -1 -1 -2 -3 -4
12 15 14 10 9 10 9 8 8 8 9 8 9 9 9 8 7 8 8 7 7 6 6 6 6 5 5 5 3 2 1 0 -0 -0 -0 -0 -0 -0 -1 -1 -2 -3 -3 -4
12 12 10 10 9 8 7 7 8 9 9 9 9 8 8 7 7 7 6 6 6 5 5 4 4 4 4 3 2 1 1 -0 -1 -1 -2 -1 -1 -1 -2 -2 -3 -3 -4 -5
9 12 11 9 7 7 6 7 8 10 10 10 9 7 7 6 6 6 5 5 5 4 3 3 2 2 2 1 0 -0 -0 -1 -1 -2 -2 -2 -2 -2 -2 -3 -3 -3 -4 -4
11 8 8 6 6 8 8 9 10 10 10 7 8 7 6 5 5 5 4 4 3 3 2 1 0 -0 -0 -1 -1 -1 -1 -2 -2 -2 -2 -2 -3 -3 -3 -3 -3 -4 -4 -4
8 7 6 6 7 9 9 10 10 10 9 8 7 6 5 5 4 3 3 3 2 1 0 0 -1 -1 -1 -2 -2 -2 -2 -2 -2 -3 -3 -3 -3 -3 -3 -4 -4 -4 -4 -5
8 9 8 8 9 9 9 9 8 7 6 6 5 4 4 3 2 2 2 1 1 0 -1 -1 -2 -2 -2 -2 -2 -3 -2 -2 -2 -3 -4 -4 -4 -3 -4 -4 -4 -4 -5 -5
9 10 10 9 9 8 8 7 7 5 5 5 4 4 3 2 1 1 0 0 -0 -1 -1 -2 -2 -2 -2 -3 -3 -2 -2 -3 -3 -3 -3 -4 -4 -4 -4 -4 -4 -4 -5 -5
9 9 8 8 7 7 7 6 5 4 4 3 3 3 2 1 0 -1 -1 -1 -2 -2 -3 -2 -1 -2 -2 -3 -3 -3 -3 -4 -3 -4 -4 -4 -4 -4 -4 -4 -4 -4 -5 -5
9 9 8 7 6 5 5 4 4 4 3 3 3 2 1 -0 -1 -2 -2 -2 -2 -1 -1 -1 -2 -3 -3 -3 -3 -3 -3 -4 -4 -4 -4 -4 -4 -4 -4 -4 -4 -5 -5 -5
8 7 6 6 5 4 4 3 3 3 3 2 1 1 -0 -1 -1 -1 -2 -2 -2 -2 -1 -2 -3 -4 -3 -3 -3 -4 -4 -4 -4 -4 -4 -4 -4 -3 -4 -4 -4 -4 -4 -5
6 6 6 5 5 5 3 3 3 2 2 1 1 0 -1 -0 -0 -1 -1 -2 -2 -2 -1 -2 -3 -4 -3 -3 -3 -3 -3 -4 -4 -4 -4 -4 -4 -4 -4 -4 -4 -4 -4 -5
5 5 5 5 4 4 3 3 2 2 2 2 1 0 -0 0 -0 -1 -2 -2 -1 -1 -1 -2 -3 -3 -3 -3 -3 -3 -3 -4 -4 -4 -3 -4 -3 -4 -4 -4 -4 -4 -4 -5
4 4 4 4 3 3 4 3 3 2 2 2 1 0 -1 -0 0 -1 -1 -2 -1 -1 -1 -2 -2 -2 -3 -3 -3 -3 -4 -4 -4 -4 -4 -4 -4 -4 -4 -4 -4 -4 -5 -5
4 4 4 4 4 3 3 3 3 2 2 2 -1 -2 -1 -1 -1 -2 -2 -2 -2 -2 -2 -2 -2 -2 -3 -3 -3 -3 -4 -4 -4 -4 -4 -4 -4 -4 -5 -5 -5 -5 -5 -5
4 4 4 4 3 3 2 3 3 3 3 2 1 0 -0 -1 -1 -2 -2 -2 -2 -2 -2 -2 -2 -2 -3 -3 -3 -4 -4 -4 -4 -4 -4 -4 -5 -5 -5 -5 -6 -6 -5 -5
4 4 3 3 3 2 3 3 3 3 1 0 -1 -1 -1 -2 -2 -2 -2 -2 -2 -2 -2 -2 -2 -2 -3 -3 -3 -3 -4 -4 -4 -4 -4 -4 -5 -5 -5 -6 -6 -6 -6 -6
3 3 3 3 3 3 3 3 2 1 -0 -1 -2 -2 -2 -2 -2 -2 -2 -2 -2 -3 -3 -3 -3 -2 -3 -3 -3 -3 -4 -4 -4 -4 -4 -5 -5 -5 -6 -6 -7 -7 -7 -7
4 4 4 3 4 3 3 2 1 1 -1 -2 -2 -2 -2 -2 -2 -3 -3 -3 -3 -3 -3 -3 -3 -3 -3 -3 -3 -3 -3 -4 -4 -4 -4 -5 -5 -6 -6 -7 -7 -7 -7 -7

GFSNGP_925_temp_036.txt.gz
Temp
17 17 18 18 18 17 17 16 14 15 15 13 13 12 12 12 12 11 10 9 9 8 9 9 10 10 11 11 11 10 10 9 9 9 8 7 6 5 5 4 4 4 3 3
16 14 14 16 16 16 16 18 17 14 13 14 13 12 11 11 10 10 9 9 8 8 8 9 10 9 9 9 9 9 9 9 8 8 7 7 6 5 4 3 1 3 3 3
12 10 11 11 16 17 17 16 16 15 13 12 11 11 10 9 9 8 8 8 7 7 8 8 8 9 9 9 8 8 8 7 7 6 6 5 4 3 1 0 0 3 2 1
8 8 11 16 16 16 14 14 13 12 11 11 11 9 8 8 8 7 7 7 7 8 8 9 9 8 8 8 8 7 6 5 5 4 4 4 2 0 -0 -0 -0 1 1 -1
7 9 12 16 17 16 16 13 12 11 11 10 10 8 8 8 8 8 7 7 8 9 9 8 8 8 7 7 6 6 5 4 4 4 3 3 1 0 2 1 1 0 -1 -2
7 8 9 13 16 17 15 11 12 10 9 9 9 7 7 8 8 8 8 8 9 8 7 7 7 7 7 6 6 5 4 4 3 3 2 1 1 1 1 1 1 -1 -2 -2
3 4 9 12 15 16 11 12 10 10 9 8 8 7 7 7 7 8 8 8 8 7 7 7 7 6 6 6 5 4 4 3 2 1 1 0 -0 0 0 0 -1 -1 -2 -3
6 5 10 13 15 13 11 9 9 8 8 8 8 7 8 7 8 8 7 7 7 6 6 6 6 5 5 5 4 4 3 2 1 1 1 0 0 0 -1 -1 -1 -2 -3 -4
10 10 11 13 13 11 9 8 8 8 8 7 7 8 9 7 7 7 6 6 6 5 5 5 4 4 3 3 3 2 1 0 -0 -1 -0 -0 -0 -0 -1 -2 -2 -3 -4 -4
11 14 12 10 9 9 9 8 8 8 8 7 8 8 6 6 5 5 5 5 5 5 4 3 3 2 2 2 2 1 0 -1 -0 -1 -1 -2 -2 -2 -2 -3 -3 -3 -4 -4
11 10 9 10 9 8 7 7 8 8 8 8 7 6 6 5 5 5 4 4 4 3 3 2 1 1 0 0 -0 -1 -1 -1 -1 -1 -2 -3 -2 -2 -3 -3 -3 -4 -4 -4
10 12 10 9 7 6 7 7 8 8 8 7 7 5 5 4 4 4 3 3 3 2 2 1 0 -0 -1 -1 -2 -2 -2 -2 -2 -2 -3 -3 -3 -3 -3 -3 -4 -4 -4 -4
11 8 7 6 6 7 7 8 9 8 7 5 6 5 5 4 4 3 3 2 2 1 1 0 -0 -1 -2 -2 -2 -2 -3 -2 -3 -3 -3 -3 -3 -3 -4 -3 -4 -4 -4 -4
7 7 6 6 6 8 9 9 8 7 6 6 5 4 4 3 3 3 2 1 1 0 -0 -1 -2 -2 -3 -2 -2 -3 -3 -3 -3 -3 -3 -4 -4 -4 -4 -4 -4 -4 -4 -5
7 8 8 7 8 8 8 8 6 5 5 4 4 4 3 2 2 1 1 0 -1 -1 -2 -2 -3 -2 -2 -2 -3 -3 -3 -3 -3 -4 -3 -4 -4 -4 -4 -4 -4 -4 -4 -5
8 8 8 9 8 7 6 6 5 4 4 4 3 3 3 2 1 0 -1 -2 -2 -3 -3 -3 -2 -2 -2 -2 -3 -3 -3 -3 -3 -4 -4 -4 -4 -4 -4 -4 -4 -4 -4 -5
8 8 7 6 6 6 5 4 4 3 3 3 2 2 2 1 -0 -1 -2 -1 -2 -2 -2 -2 -1 -2 -3 -3 -3 -3 -3 -3 -4 -4 -4 -4 -4 -4 -4 -4 -4 -5 -5 -5
8 7 7 6 5 4 3 3 3 3 2 3 2 1 1 -0 -2 -1 -1 -1 -2 -2 -3 -2 -2 -3 -4 -3 -3 -3 -4 -4 -4 -4 -4 -4 -4 -4 -4 -4 -4 -5 -4 -5
6 5 5 5 4 4 3 3 3 3 3 2 1 1 1 -0 -0 0 -1 -1 -1 -2 -2 -2 -2 -3 -4 -3 -3 -3 -4 -4 -4 -4 -4 -4 -4 -4 -4 -4 -4 -4 -4 -5
5 5 5 5 5 4 4 3 3 2 2 2 1 0 -0 -0 -0 0 0 -1 -1 -2 -1 -2 -2 -2 -3 -3 -3 -3 -4 -4 -4 -4 -4 -4 -4 -4 -4 -4 -4 -4 -4 -4
4 4 4 4 4 4 4 3 3 2 3 2 1 0 -0 -1 -0 1 -1 -1 -1 -1 -2 -2 -2 -2 -2 -2 -3 -3 -3 -3 -4 -4 -4 -4 -4 -4 -4 -4 -4 -4 -4 -5
4 3 4 4 3 3 3 3 3 2 2 2 1 -0 -2 -1 -1 -1 -1 -2 -1 -2 -2 -2 -2 -2 -2 -2 -3 -3 -3 -3 -4 -4 -4 -4 -5 -4 -4 -5 -5 -5 -5 -5
4 3 3 3 3 3 3 3 3 2 2 2 1 -1 -1 -1 -2 -2 -2 -2 -2 -3 -2 -2 -2 -2 -3 -3 -3 -3 -3 -3 -4 -4 -4 -4 -5 -4 -4 -5 -5 -5 -5 -5
3 3 3 3 3 2 1 3 3 3 2 2 1 0 -1 -2 -2 -2 -2 -2 -2 -2 -2 -2 -3 -3 -3 -3 -3 -3 -4 -4 -4 -4 -4 -4 -4 -4 -5 -5 -5 -6 -6 -6
3 3 3 3 2 1 2 3 2 2 2 1 0 -0 -1 -2 -2 -2 -2 -3 -3 -3 -4 -3 -3 -3 -3 -3 -3 -3 -3 -3 -3 -3 -4 -4 -5 -4 -5 -5 -5 -6 -6 -7
3 2 3 3 2 3 3 2 2 2 1 0 -0 -1 -2 -2 -2 -2 -3 -3 -4 -4 -4 -4 -4 -4 -4 -3 -3 -3 -3 -3 -3 -4 -4 -4 -4 -4 -5 -5 -6 -6 -7 -7
3 3 2 1 2 2 2 2 1 1 1 -0 -1 -1 -2 -2 -3 -4 -4 -5 -5 -6 -6 -6 -6 -6 -5 -4 -4 -4 -4 -3 -4 -4 -4 -4 -4 -4 -5 -6 -7 -7 -7 -8

GFSNGP_925_temp_042.txt.gz
Temp
14 13 16 17 16 14 15 14 14 15 13 14 11 10 9 9 8 8 8 8 8 7 7 8 8 8 8 8 8 7 7 7 6 6 6 5 5 5 4 3 2 1 1 0
15 12 12 15 15 14 14 14 13 14 13 12 10 9 9 9 8 9 9 8 8 7 7 7 7 7 7 7 7 7 7 6 5 5 5 4 4 3 2 2 1 1 -1 -1
12 9 11 11 13 13 14 13 13 13 13 10 10 9 8 8 8 8 7 7 7 6 6 7 7 7 7 6 6 6 6 6 5 4 4 3 2 2 1 -0 -0 -0 -1 -1
8 7 11 15 13 13 14 14 13 13 11 11 10 9 8 7 7 6 7 7 6 6 6 6 6 6 6 6 5 5 5 5 4 3 3 2 2 1 0 0 0 -1 -1 -2
7 8 12 16 13 13 14 14 11 12 10 9 7 8 8 6 6 6 6 7 6 6 6 6 6 5 5 4 4 3 3 3 3 2 2 2 1 1 0 -0 -1 -1 -2 -2
4 8 9 14 14 13 15 12 11 10 9 8 7 7 9 6 6 6 7 7 6 6 6 5 5 4 3 3 2 1 1 2 2 2 1 1 -0 -0 -0 -1 -1 -2 -2 -2
1 5 9 11 14 14 12 12 10 10 9 7 7 8 7 5 6 7 6 6 6 5 5 4 3 3 2 1 1 0 1 1 1 1 -0 -1 -1 -1 -1 -1 -2 -2 -3 -3
5 4 11 11 14 13 12 11 10 8 7 7 7 6 6 6 5 5 5 5 5 4 4 3 2 2 1 1 0 -0 -0 -0 -1 -1 -1 -2 -2 -1 -3 -2 -3 -3 -3 -4
9 9 11 11 12 11 9 10 9 8 7 7 7 7 6 5 4 4 5 4 4 3 3 3 2 1 1 0 -0 -1 -2 -3 -3 -2 -2 -2 -2 -3 -3 -3 -3 -3 -4 -4
10 13 10 10 10 9 8 9 7 7 7 7 6 6 5 4 3 3 4 4 3 2 2 2 1 1 -0 -1 -2 -2 -2 -2 -2 -3 -3 -3 -3 -3 -3 -3 -4 -4 -4 -5
9 10 10 9 8 9 8 7 7 7 7 6 6 5 4 3 3 3 3 3 2 1 1 1 0 -0 -1 -2 -3 -3 -3 -2 -3 -3 -3 -3 -4 -3 -4 -4 -5 -4 -4 -5
10 11 11 11 10 7 6 7 7 7 6 6 6 4 4 3 3 3 2 2 1 1 -0 -1 -1 -2 -2 -2 -2 -3 -3 -3 -4 -3 -4 -4 -4 -4 -4 -4 -4 -5 -5 -5
11 10 8 6 6 6 7 6 7 6 6 4 4 5 4 3 3 2 1 1 -0 -1 -2 -2 -3 -3 -2 -2 -3 -3 -3 -3 -3 -3 -4 -4 -4 -4 -4 -4 -4 -4 -5 -4
8 7 8 7 7 7 7 6 5 4 4 5 4 4 4 3 2 1 0 -0 -1 -1 -2 -2 -2 -3 -3 -2 -2 -3 -4 -3 -4 -3 -4 -4 -5 -4 -4 -5 -5 -5 -4 -5
6 6 7 6 6 5 6 5 4 4 3 3 3 3 2 2 1 1 -0 -1 -1 -2 -2 -2 -2 -2 -2 -2 -3 -2 -3 -3 -3 -3 -4 -4 -5 -5 -4 -5 -5 -5 -5 -4
5 6 6 5 5 5 5 4 3 3 3 3 2 2 2 1 1 0 -0 -1 -1 -1 -1 -1 -1 -1 -2 -2 -3 -3 -3 -3 -3 -3 -4 -4 -4 -4 -5 -5 -5 -5 -5 -4
5 4 3 3 3 3 3 4 3 3 3 2 2 2 1 0 -0 -0 -0 -0 0 0 0 -0 -0 -1 -2 -2 -2 -3 -3 -4 -4 -4 -4 -4 -4 -5 -5 -5 -5 -5 -5 -4
5 4 4 3 3 3 2 3 3 2 2 2 2 1 0 -1 -1 0 1 0 -1 -0 0 -0 -1 -2 -2 -2 -2 -3 -3 -4 -4 -4 -4 -4 -4 -4 -5 -4 -5 -5 -5 -4
4 4 4 4 4 3 3 2 2 2 2 2 1 1 1 1 0 0 -0 -1 -1 -2 -1 -1 -2 -2 -2 -2 -3 -3 -3 -3 -4 -4 -4 -4 -5 -5 -5 -5 -5 -5 -4 -5
4 4 4 4 3 3 3 3 3 2 3 2 1 1 0 1 1 -0 -1 -2 -1 -1 -1 -2 -3 -3 -3 -4 -4 -4 -5 -4 -4 -4 -4 -4 -4 -4 -4 -5 -5 -5 -5 -5
2 3 3 3 3 3 3 3 2 2 3 2 0 0 0 1 0 -1 -2 -3 -0 -1 -2 -3 -3 -4 -4 -4 -4 -4 -4 -4 -5 -5 -5 -5 -4 -4 -5 -4 -5 -5 -5 -5
2 2 2 2 2 2 3 2 2 2 2 2 2 1 0 -0 1 -1 -1 -2 -1 -2 -3 -4 -4 -4 -4 -4 -4 -4 -4 -4 -4 -4 -5 -5 -5 -5 -5 -5 -5 -5 -5 -5
2 2 2 2 1 1 1 2 2 1 1 1 1 1 1 1 0 -3 -2 -1 -2 -3 -4 -4 -5 -5 -5 -4 -4 -4 -4 -4 -4 -4 -4 -4 -5 -5 -5 -5 -5 -5 -5 -5
1 1 1 1 1 0 -1 -1 -1 -1 -0 -0 0 1 0 -0 -0 -0 -0 -2 -3 -4 -5 -5 -5 -5 -6 -6 -6 -6 -6 -5 -4 -4 -4 -4 -5 -5 -5 -5 -6 -6 -5 -5
-0 -1 -2 -2 -3 -3 -3 -4 -4 -4 -4 -4 -3 -2 -1 -1 -2 -2 -2 -3 -4 -5 -6 -5 -6 -7 -7 -7 -8 -9 -9 -9 -8 -7 -6 -5 -5 -5 -4 -5 -5 -5 -6 -5
-4 -4 -4 -4 -5 -6 -6 -6 -6 -5 -5 -4 -4 -4 -3 -3 -3 -3 -3 -3 -5 -6 -6 -6 -7 -8 -8 -9 -10 -11 -10 -10 -10 -9 -9 -8 -7 -5 -5 -4 -5 -5 -5 -5
-5 -5 -6 -6 -7 -8 -9 -8 -7 -7 -6 -6 -5 -4 -4 -3 -3 -4 -4 -4 -6 -7 -8 -8 -9 -9 -10 -10 -11 -11 -12 -12 -12 -12 -11 -11 -11 -10 -9 -8 -7 -7 -7 -7

GFSNGP_925_temp_045.txt.gz
Temp
14 14 15 17 16 15 17 16 17 17 16 17 17 15 13 12 11 10 10 10 10 10 9 8 7 7 8 8 8 7 7 6 6 5 5 5 4 4 3 2 1 0 -0 -1
15 13 13 15 16 15 15 15 16 15 16 16 14 13 12 11 11 11 10 10 9 8 8 7 7 7 7 7 7 6 6 6 5 5 4 4 3 3 1 0 -0 0 0 -1
14 11 13 14 15 16 15 15 17 16 18 13 12 12 12 11 11 11 10 9 8 8 7 7 6 7 6 6 5 5 5 4 4 4 3 3 2 1 1 0 0 0 -1 -1
13 10 15 17 14 15 15 15 15 14 14 14 13 12 12 12 11 10 9 9 8 7 6 6 6 6 5 4 4 3 3 2 2 2 2 1 1 1 0 -0 -0 -0 -1 -2
13 13 14 17 14 14 15 17 15 15 12 11 10 11 11 10 10 10 9 8 7 6 6 6 5 5 4 3 2 2 2 1 1 1 1 0 0 -0 -0 -1 -1 -1 -2 -3
9 14 14 16 14 14 15 15 14 13 11 10 11 12 14 10 9 7 7 6 6 5 5 5 4 4 3 2 1 1 0 0 0 0 -0 -0 -1 -1 -1 -1 -2 -2 -3 -3
7 12 13 13 14 14 15 16 11 13 11 10 12 12 9 8 7 7 6 5 5 5 5 4 4 3 2 1 1 -0 -1 -1 -1 -1 -1 -1 -1 -1 -1 -2 -3 -3 -3 -3
6 10 13 12 14 15 15 12 12 11 10 10 8 7 7 7 7 6 5 5 5 4 4 3 3 2 1 1 -0 -1 -1 -2 -2 -2 -2 -2 -2 -2 -2 -3 -3 -3 -3 -3
12 14 13 12 13 11 11 12 11 10 10 9 8 8 7 6 6 5 5 4 4 3 3 2 2 1 0 -0 -1 -2 -2 -2 -2 -2 -2 -2 -3 -3 -3 -3 -3 -4 -4 -4
12 14 12 12 11 11 10 10 10 9 9 9 9 7 6 6 4 4 4 4 3 2 2 1 1 0 -1 -1 -2 -2 -3 -2 -2 -2 -2 -3 -3 -3 -3 -4 -4 -4 -4 -4
11 12 11 11 10 10 9 9 8 8 8 8 7 7 5 4 4 4 3 2 2 1 1 0 -1 -1 -2 -2 -2 -2 -3 -3 -3 -3 -3 -3 -3 -3 -4 -4 -4 -4 -4 -4
12 13 13 12 8 8 8 8 8 8 7 7 6 5 4 4 4 3 2 2 1 0 -0 -1 -2 -2 -3 -2 -2 -2 -3 -3 -3 -4 -3 -4 -3 -3 -4 -4 -4 -4 -5 -5
12 10 9 7 7 7 8 7 7 7 5 5 4 4 4 4 3 2 1 1 0 -0 -1 -2 -2 -2 -2 -3 -3 -3 -3 -3 -3 -4 -4 -3 -4 -4 -3 -4 -4 -4 -4 -4
7 8 9 7 7 7 6 6 5 5 4 4 3 4 4 3 2 1 1 1 0 -1 -2 -2 -2 -2 -2 -2 -3 -2 -3 -3 -3 -4 -4 -4 -4 -4 -5 -4 -4 -4 -5 -5
6 6 6 6 6 6 5 5 4 4 3 3 3 3 3 2 2 1 1 0 -0 -1 -1 -1 -1 -1 -1 -2 -2 -2 -3 -3 -3 -3 -4 -4 -5 -5 -5 -5 -5 -5 -5 -5
5 6 6 5 5 5 4 4 3 4 4 3 3 2 2 2 1 1 1 -0 -1 -0 0 -0 -1 -0 -1 -2 -2 -3 -2 -3 -3 -4 -4 -4 -4 -4 -4 -5 -5 -5 -5 -5
5 4 4 4 4 3 4 4 4 3 3 2 2 2 2 1 0 0 0 0 -0 -0 -0 -1 -0 -1 -1 -2 -2 -3 -3 -3 -3 -4 -4 -5 -5 -5 -5 -5 -5 -5 -5 -5
5 4 4 4 4 4 3 2 3 3 2 2 2 1 1 -1 -1 -0 0 0 -0 -1 0 0 -1 -2 -2 -2 -3 -3 -4 -4 -4 -4 -4 -5 -5 -5 -5 -5 -5 -5 -5 -5
4 4 4 3 3 3 3 2 2 2 2 2 1 1 0 -0 -0 -0 0 -1 -1 -2 0 -1 -2 -3 -3 -3 -4 -4 -4 -5 -5 -5 -5 -5 -5 -5 -5 -5 -5 -5 -6 -6
3 3 3 3 3 2 2 2 2 2 2 1 1 0 0 1 1 0 -1 -2 -1 -0 -0 -1 -2 -3 -3 -4 -4 -4 -5 -5 -4 -4 -5 -5 -5 -5 -5 -5 -5 -5 -5 -6
2 2 1 2 2 2 2 2 2 1 1 1 -1 -1 -1 -1 -0 -0 -4 -4 1 1 -1 -2 -3 -3 -4 -4 -5 -4 -4 -4 -4 -4 -4 -4 -4 -5 -5 -5 -5 -5 -5 -6
2 1 1 1 0 1 0 -0 -1 -1 -1 -1 -1 -1 -2 -2 -2 -1 -1 -2 1 -1 -2 -2 -3 -4 -5 -5 -5 -5 -5 -4 -4 -4 -4 -4 -4 -4 -4 -5 -5 -5 -5 -6
1 0 -1 -1 -1 -2 -2 -3 -3 -3 -4 -4 -4 -4 -4 -4 -4 -3 -2 -1 -1 -1 -3 -3 -4 -5 -5 -5 -6 -7 -7 -6 -6 -6 -5 -4 -4 -4 -5 -5 -5 -5 -5 -6
-1 -2 -3 -3 -4 -4 -4 -4 -5 -5 -5 -5 -5 -5 -5 -5 -4 -4 -3 -3 -3 -3 -4 -4 -5 -6 -6 -7 -7 -9 -10 -9 -9 -9 -8 -8 -7 -6 -5 -5 -5 -5 -5 -5
-4 -4 -4 -5 -5 -6 -6 -7 -6 -6 -6 -6 -6 -6 -6 -5 -5 -4 -4 -4 -4 -4 -5 -5 -6 -7 -8 -8 -9 -10 -11 -12 -11 -12 -12 -12 -12 -11 -10 -8 -6 -5 -5 -5
-5 -5 -5 -6 -7 -8 -8 -9 -9 -8 -9 -9 -9 -8 -8 -8 -7 -6 -4 -5 -5 -6 -7 -7 -8 -9 -9 -10 -10 -11 -12 -13 -13 -13 -14 -14 -14 -13 -13 -12 -11 -9 -8 -7
-7 -8 -8 -8 -9 -10 -11 -11 -11 -11 -11 -11 -11 -10 -10 -9 -8 -7 -6 -7 -8 -9 -9 -10 -11 -11 -11 -12 -12 -13 -13 -14 -14 -14 -14 -15 -15 -15 -15 -14 -14 -12 -11 -11

GFSNGP_925_temp_051.txt.gz
Temp
25 25 24 25 25 25 24 25 24 25 26 28 27 26 25 25 24 22 21 20 20 19 18 16 14 13 13 12 12 11 11 11 10 9 9 8 8 7 6 6 6 6 6 4
22 24 23 23 24 25 25 25 26 26 26 28 27 26 25 24 23 22 21 20 20 19 17 16 15 13 12 12 11 10 10 10 9 8 8 8 7 7 6 6 6 6 4 3
21 21 21 18 22 24 25 25 25 24 26 25 24 24 24 24 22 21 20 20 19 18 16 15 14 13 12 11 10 9 9 9 8 7 7 7 7 6 6 6 5 4 3 2
19 15 16 24 24 24 23 25 26 26 25 25 24 24 23 23 22 21 20 19 18 17 15 14 12 11 11 10 9 9 8 7 7 7 6 6 6 6 6 6 5 3 2 2
16 20 23 24 24 22 22 23 25 24 25 24 22 21 21 22 22 21 20 18 17 15 13 13 11 11 10 9 9 8 8 7 6 6 5 5 5 5 5 5 4 2 2 2
16 17 16 22 22 21 22 21 23 23 22 22 20 19 22 21 20 19 18 17 15 14 12 11 10 9 9 9 8 8 7 6 5 5 5 5 4 3 3 3 4 2 1 1
17 16 20 23 21 21 20 20 21 22 22 21 21 19 19 19 18 17 16 15 13 11 10 10 8 8 8 8 8 7 6 5 5 4 4 4 3 3 2 3 2 -0 -1 -1
16 13 16 21 20 20 20 21 20 21 21 20 19 16 16 17 16 15 14 11 10 10 9 8 7 7 7 8 7 6 5 4 4 4 4 4 3 3 3 2 1 -1 -2 -2
20 20 21 21 21 20 20 19 20 19 19 18 18 16 16 15 14 13 10 10 9 8 7 7 6 6 6 6 5 5 4 4 4 2 1 2 3 3 2 -0 -1 -1 -1 -1
19 22 22 21 21 20 20 19 19 18 17 17 17 16 15 14 12 10 9 7 5 5 7 7 6 5 5 5 4 4 4 4 3 2 0 -1 0 1 1 -0 -0 -0 -1 -1
20 21 21 20 18 16 17 16 16 15 16 16 17 15 13 11 9 7 4 3 5 7 7 6 5 5 5 4 3 3 3 3 2 2 -0 -1 -2 -1 -0 0 0 -0 -1 -1
18 17 18 16 15 14 15 15 15 14 14 14 13 11 9 7 4 3 4 5 6 6 5 5 6 5 4 4 4 3 2 2 2 1 -0 -1 -2 -2 -1 -2 -2 -2 -2 -3
18 16 15 14 14 15 14 13 13 12 10 9 8 6 4 4 4 4 5 6 5 6 6 5 5 4 4 4 3 2 2 1 1 1 -0 -1 -2 -2 -2 -2 -2 -2 -3 -3
14 15 14 14 12 12 11 10 8 8 6 5 4 5 5 6 6 6 6 6 6 6 5 5 5 5 4 4 3 2 2 1 1 -0 -1 -1 -1 -2 -2 -2 -2 -2 -2 -2
13 14 13 12 10 9 7 6 5 5 5 5 7 8 7 7 7 7 7 6 5 5 5 5 5 4 4 3 2 2 2 2 1 -0 -1 -2 -2 -2 -2 -3 -3 -3 -3 -3
12 12 11 9 8 7 7 6 6 7 8 8 7 6 6 6 6 6 6 5 4 4 4 4 3 2 2 2 2 2 2 2 1 -0 -1 -1 -1 -2 -2 -2 -2 -2 -2 -2
9 8 7 7 8 7 8 9 9 8 7 6 5 3 3 3 3 4 4 4 2 2 1 1 1 1 1 2 2 2 2 2 -0 -1 -1 -1 -2 -2 -2 -2 -2 -2 -2 -2
8 7 7 7 8 8 7 6 5 5 3 2 1 1 1 1 1 1 1 1 0 -0 -0 1 1 1 1 1 2 1 0 -1 -2 -3 -3 -3 -3 -2 -2 -2 -2 -2 -2 -2
7 7 8 7 7 6 5 4 3 3 1 0 0 -0 -1 -1 -0 -0 -1 -1 -1 -0 2 2 1 0 0 1 0 -0 -1 -2 -3 -3 -3 -3 -3 -3 -3 -3 -3 -3 -3 -3
7 6 5 3 3 3 2 1 2 2 1 -1 -2 -2 -2 -2 -2 -3 -2 -2 -1 0 -0 -1 -1 -1 -1 -1 -1 -2 -3 -3 -3 -3 -3 -3 -3 -3 -3 -3 -3 -3 -3 -3
5 4 3 2 1 -1 -1 -1 -2 -1 -2 -3 -3 -3 -4 -4 -3 -2 -2 -1 -1 -1 -3 -2 -2 -1 -1 -2 -2 -2 -3 -3 -3 -3 -3 -3 -3 -3 -3 -3 -3 -3 -3 -3
3 0 -0 1 1 1 -1 -2 -3 -3 -4 -4 -4 -4 -5 -3 -3 -2 -2 -2 -3 -4 -4 -4 -3 -3 -3 -3 -3 -3 -4 -4 -5 -5 -5 -5 -5 -5 -5 -5 -5 -5 -5 -4
3 1 -0 -1 -0 -0 -2 -3 -3 -3 -4 -5 -5 -5 -6 -5 -4 -4 -4 -5 -6 -5 -6 -5 -5 -6 -5 -5 -4 -5 -5 -6 -6 -7 -7 -7 -7 -7 -8 -8 -8 -7 -7 -7
2 1 -0 -1 -2 -1 -1 -2 -3 -3 -4 -5 -5 -6 -6 -6 -6 -6 -7 -7 -7 -7 -7 -8 -9 -8 -8 -6 -7 -7 -7 -8 -8 -9 -9 -9 -9 -9 -9 -9 -9 -9 -9 -9
0 -0 -1 -1 -0 -1 -2 -3 -3 -4 -5 -5 -6 -6 -7 -7 -8 -8 -8 -8 -8 -8 -9 -10 -11 -11 -10 -10 -10 -10 -10 -11 -11 -11 -11 -11 -11 -11 -11 -11 -11 -11 -11 -11
0 -0 -2 -3 -3 -4 -5 -5 -5 -6 -7 -6 -7 -8 -8 -8 -9 -9 -9 -9 -10 -10 -10 -11 -12 -13 -12 -12 -13 -13 -13 -13 -14 -14 -14 -13 -13 -13 -13 -14 -14 -14 -13 -13
-4 -3 -3 -3 -5 -6 -7 -8 -7 -8 -8 -9 -9 -9 -9 -9 -10 -10 -10 -11 -11 -11 -12 -12 -13 -14 -15 -15 -15 -15 -15 -15 -16 -16 -15 -15 -15 -16 -16 -16 -16 -15 -15 -15

GFSNGP_925_temp_054.txt.gz
Temp
26 26 26 25 26 26 25 25 23 24 25 27 28 26 26 26 25 25 24 23 22 20 19 18 16 15 13 12 12 12 12 11 11 10 9 9 8 8 7 7 6 6 6 5
23 24 25 23 25 25 25 25 26 26 26 28 27 27 26 25 25 24 23 22 21 20 19 18 15 14 13 12 12 11 11 10 10 9 8 8 7 7 7 7 6 6 5 4
20 21 21 18 22 23 24 26 25 24 25 27 26 25 25 24 25 24 23 22 21 20 19 17 16 14 13 12 11 10 9 9 9 8 7 7 7 6 6 6 6 6 4 3
18 15 17 23 26 25 24 25 25 26 26 26 25 24 24 24 23 22 22 21 20 19 17 16 14 13 12 11 10 9 9 8 8 7 7 6 6 6 6 6 5 5 4 3
14 18 22 23 25 24 23 23 24 24 24 24 22 22 22 23 23 22 21 20 19 17 16 14 13 12 11 10 10 9 8 7 7 6 6 5 5 5 4 3 3 4 3 2
16 15 15 23 23 23 23 20 23 23 23 22 21 19 20 21 21 20 20 19 17 15 14 13 11 10 10 9 9 8 8 6 6 5 5 5 5 4 4 3 3 3 1 1
16 15 18 24 22 22 19 19 22 21 22 22 21 18 19 20 19 19 18 17 15 13 11 10 9 8 7 7 8 8 7 5 5 5 5 5 4 4 4 3 3 1 0 0
16 13 15 23 21 20 20 21 20 21 20 19 17 16 18 18 17 16 13 12 11 11 10 8 7 6 7 7 6 6 5 5 4 5 4 3 2 3 3 3 2 -0 -1 -1
18 17 21 22 21 20 20 20 20 19 19 19 18 17 17 16 14 12 11 11 10 8 7 6 6 6 5 5 5 5 5 5 4 4 3 2 1 1 1 2 1 0 -1 -1
20 22 22 22 21 20 19 18 18 17 17 17 17 17 16 13 12 11 10 7 5 4 5 6 6 6 5 5 5 5 4 4 4 4 3 2 0 -1 -1 -0 0 -0 -1 -1
21 22 22 18 17 16 17 16 17 16 16 16 17 15 13 11 9 6 5 5 5 6 6 6 6 5 4 5 5 4 4 4 3 3 3 1 0 -0 -1 -1 -1 -1 -1 -1
18 17 18 16 15 16 16 15 15 14 13 13 13 11 9 7 5 5 5 5 6 7 5 5 5 6 6 5 5 4 3 2 2 2 1 1 -0 -1 -1 -1 -1 -1 -1 -2
18 17 15 15 15 15 13 13 12 11 10 9 8 7 6 5 5 5 5 6 7 6 6 6 6 5 5 5 4 4 3 2 2 1 1 0 -0 -1 -2 -1 -1 -1 -2 -2
16 16 14 15 12 11 11 9 8 7 6 6 5 5 6 6 6 7 7 7 7 6 6 6 6 6 5 5 5 4 3 2 2 2 1 0 -1 -1 -1 -2 -2 -2 -2 -2
14 14 13 12 10 9 8 7 7 6 6 6 7 8 8 8 7 7 7 6 5 5 5 5 5 4 4 4 3 3 2 2 2 2 2 1 -0 -1 -2 -2 -2 -2 -2 -2
13 13 12 9 8 7 7 7 7 7 8 7 6 5 5 5 4 4 5 4 3 2 2 2 2 2 1 2 2 2 3 3 2 2 1 0 -1 -1 -1 -1 -2 -2 -2 -2
10 9 8 7 7 8 9 8 8 7 5 3 2 1 2 1 2 2 1 1 0 0 -0 -0 0 1 0 1 1 2 2 2 2 2 0 -1 -2 -2 -2 -2 -2 -2 -2 -2
10 9 9 8 8 8 6 5 4 3 1 1 0 0 -1 -1 -1 -0 -1 -1 -1 -1 0 0 -0 -1 -1 -1 -0 -1 -0 -0 0 -1 -2 -2 -3 -3 -3 -3 -2 -3 -2 -2
7 8 8 8 7 6 4 3 2 0 -1 -1 -1 -2 -2 -2 -3 -3 -2 -2 -2 -0 -1 -2 -3 -3 -2 -1 -1 -2 -2 -2 -2 -2 -3 -3 -3 -3 -3 -3 -3 -3 -3 -3
8 6 5 4 3 2 1 1 1 -0 -2 -3 -3 -3 -4 -3 -3 -3 -3 -3 -1 -4 -4 -4 -5 -4 -3 -4 -4 -3 -3 -3 -3 -2 -3 -3 -3 -3 -3 -3 -3 -3 -3 -3
5 3 1 0 -0 -1 -1 -2 -2 -2 -3 -4 -4 -5 -5 -5 -3 -3 -3 -3 -4 -6 -6 -6 -5 -7 -7 -7 -6 -4 -4 -4 -3 -3 -4 -4 -4 -5 -6 -6 -6 -6 -6 -5
2 0 0 0 0 -1 -2 -2 -3 -4 -4 -5 -5 -5 -6 -4 -4 -4 -4 -5 -6 -7 -7 -7 -9 -9 -8 -8 -6 -5 -5 -4 -5 -5 -6 -6 -7 -7 -7 -7 -8 -8 -8 -8
1 0 -0 0 0 -1 -2 -3 -3 -4 -5 -5 -5 -6 -6 -6 -6 -6 -6 -7 -8 -8 -8 -9 -10 -10 -10 -9 -9 -9 -8 -9 -9 -9 -8 -8 -8 -9 -9 -9 -10 -10 -10 -10
2 1 -0 -1 -1 -1 -0 -2 -2 -3 -4 -4 -5 -6 -7 -7 -7 -7 -8 -8 -9 -9 -10 -10 -11 -12 -11 -11 -11 -11 -11 -12 -12 -12 -12 -11 -11 -11 -11 -12 -12 -12 -12 -12
1 -0 -0 0 0 -1 -2 -3 -3 -4 -5 -5 -6 -7 -7 -8 -9 -9 -9 -9 -10 -10 -11 -11 -12 -13 -13 -13 -13 -13 -13 -13 -14 -14 -14 -14 -14 -14 -14 -14 -14 -15 -14 -14
1 -0 -2 -2 -3 -3 -4 -5 -5 -5 -6 -7 -8 -8 -8 -9 -9 -9 -10 -10 -11 -11 -11 -12 -12 -13 -14 -14 -14 -15 -15 -15 -15 -16 -16 -16 -16 -16 -16 -16 -16 -16 -16 -16
-3 -1 -2 -3 -4 -5 -7 -7 -7 -7 -7 -9 -9 -9 -8 -9 -10 -10 -10 -11 -11 -12 -12 -13 -13 -14 -14 -15 -15 -15 -16 -16 -17 -17 -17 -17 -17 -18 -18 -18 -17 -17 -17 -17

GFSNGP_925_temp_057.txt.gz
Temp
22 22 23 24 24 23 23 21 18 19 21 21 22 20 21 21 22 20 19 18 18 16 15 14 12 12 12 12 12 12 11 10 10 9 9 8 8 8 7 7 7 7 6 5
21 21 20 20 22 22 21 22 22 22 22 23 22 21 21 21 22 20 19 18 17 15 15 13 12 12 12 12 12 11 10 9 9 9 8 7 7 7 6 6 6 6 6 5
18 17 18 15 19 20 21 21 22 21 20 21 21 20 21 20 20 20 18 18 16 16 15 14 13 13 12 11 10 10 9 9 8 8 7 7 6 5 5 6 5 5 4 4
13 13 14 18 21 22 22 22 21 20 19 18 19 19 19 18 18 18 17 16 15 14 13 13 13 12 10 10 10 9 8 8 7 7 7 6 5 5 5 5 4 4 3 3
12 12 17 19 22 22 21 20 20 19 18 18 19 16 16 17 16 16 15 14 13 12 11 11 11 11 10 9 8 8 7 7 7 6 5 5 5 5 5 4 4 3 2 2
10 12 12 17 21 21 22 16 18 18 18 19 17 12 14 16 15 14 14 13 11 10 9 9 9 9 8 7 7 7 7 5 6 4 4 4 5 4 4 4 3 3 2 2
8 9 12 17 20 21 16 15 18 17 15 16 14 13 15 12 11 11 11 10 9 7 6 6 7 7 7 7 6 6 6 5 4 4 4 4 4 3 2 2 3 2 1 0
10 12 13 18 20 17 15 17 16 15 14 13 13 14 12 11 10 10 9 7 6 5 5 6 6 6 6 6 6 6 5 4 4 4 4 4 3 2 1 1 1 1 1 1
13 12 15 17 16 16 16 15 15 14 14 14 13 13 10 9 9 7 6 5 5 5 5 5 5 6 6 5 5 4 4 4 4 4 4 3 3 1 0 -0 -1 -1 -1 -0
16 19 17 15 15 14 14 13 13 13 14 15 15 10 9 9 5 5 5 5 6 6 6 6 6 6 6 5 5 4 4 4 4 4 3 3 2 1 -0 -0 -1 -1 -2 -2
17 14 14 13 13 13 13 13 11 10 11 11 11 8 6 5 4 5 5 5 6 6 5 5 5 5 5 5 5 5 5 4 3 3 2 2 1 1 0 -0 -1 -1 -1 -1
12 14 13 12 13 12 11 11 10 8 7 6 6 5 5 5 5 5 5 5 5 5 6 6 6 6 6 5 5 5 4 4 4 3 2 2 1 1 0 0 -0 -1 -1 -1
13 12 11 10 10 10 9 9 8 7 6 5 5 5 5 4 5 5 5 5 6 6 6 6 6 5 5 5 5 5 5 4 4 3 2 2 1 1 -1 1 -0 -1 -1 -1
13 12 10 10 8 8 7 6 6 5 5 5 5 5 5 5 5 5 5 5 5 5 4 4 3 3 3 3 3 2 2 3 2 2 2 2 2 1 0 -1 -2 -2 -1 -1
11 11 9 8 7 7 6 5 4 4 4 5 5 4 4 4 3 3 2 2 2 2 1 1 1 1 0 0 0 0 1 1 1 1 1 1 0 -1 -0 -2 -2 -2 -2 -2
10 9 8 7 7 6 5 5 4 4 3 2 2 2 2 2 1 1 1 0 -1 -1 -0 -1 -1 -2 -1 -1 -1 -1 -1 -1 -1 -1 -1 -1 -1 -2 -2 -2 -2 -2 -2 -2
7 6 6 6 5 6 5 5 3 2 1 -0 -1 -0 0 -0 -1 -1 -2 -2 -2 -1 -2 -3 -4 -4 -3 -3 -3 -3 -3 -3 -2 -2 -3 -2 -2 -2 -2 -3 -3 -3 -3 -2
8 7 7 7 5 4 3 2 0 -1 -1 -1 -1 -2 -2 -3 -3 -3 -3 -2 -2 -3 -4 -5 -5 -5 -5 -5 -6 -6 -5 -4 -4 -4 -3 -3 -3 -3 -3 -3 -3 -3 -3 -3
8 7 7 5 4 3 1 -0 -2 -2 -2 -2 -3 -4 -4 -4 -4 -4 -3 -3 -6 -6 -6 -6 -6 -6 -7 -7 -7 -7 -7 -6 -5 -5 -4 -3 -3 -3 -3 -3 -4 -4 -4 -5
5 3 2 1 1 0 -1 -2 -2 -3 -3 -4 -4 -5 -5 -4 -4 -4 -4 -5 -7 -7 -7 -7 -8 -8 -9 -9 -8 -8 -7 -6 -5 -5 -4 -5 -5 -6 -6 -7 -7 -7 -7 -7
1 0 -1 -1 -2 -2 -2 -2 -3 -4 -5 -5 -5 -6 -5 -5 -5 -5 -6 -7 -8 -8 -8 -9 -10 -11 -10 -10 -10 -10 -9 -10 -9 -8 -8 -8 -7 -8 -8 -9 -9 -9 -10 -10
0 -1 -2 -2 -2 -3 -3 -3 -4 -4 -5 -6 -6 -6 -6 -6 -6 -7 -7 -8 -9 -9 -9 -11 -11 -11 -11 -12 -12 -12 -12 -12 -12 -12 -11 -11 -11 -11 -10 -11 -11 -11 -12 -12
-0 -1 -1 -2 -3 -3 -3 -4 -4 -4 -5 -6 -6 -7 -7 -7 -8 -9 -9 -9 -10 -10 -11 -11 -12 -12 -13 -13 -14 -13 -14 -14 -14 -14 -14 -13 -13 -13 -13 -14 -14 -14 -14 -14
-1 -1 -1 -1 -2 -3 -3 -3 -4 -5 -5 -6 -7 -7 -8 -8 -9 -9 -10 -10 -10 -11 -11 -12 -12 -13 -14 -14 -14 -15 -15 -15 -16 -16 -16 -15 -15 -15 -15 -16 -16 -16 -16 -16
-1 -1 -1 -1 -3 -4 -4 -4 -5 -6 -6 -7 -8 -8 -8 -9 -9 -10 -10 -10 -11 -11 -12 -12 -13 -14 -14 -14 -15 -15 -16 -16 -17 -17 -17 -17 -17 -17 -17 -17 -17 -17 -17 -17
-2 -3 -4 -4 -5 -5 -6 -6 -6 -7 -7 -8 -8 -9 -9 -9 -9 -10 -10 -11 -12 -12 -13 -13 -13 -14 -15 -15 -16 -16 -16 -17 -17 -17 -18 -18 -19 -19 -19 -19 -19 -19 -19 -18
-3 -3 -5 -6 -6 -7 -7 -8 -8 -8 -8 -9 -9 -9 -9 -10 -10 -11 -11 -12 -12 -13 -13 -14 -14 -15 -15 -16 -16 -17 -17 -18 -18 -18 -19 -19 -20 -20 -20 -20 -20 -20 -20 -19

GFSNGP_925_temp_060.txt.gz
Temp
20 21 22 22 22 22 21 19 17 19 18 20 20 20 19 18 18 17 17 16 15 14 13 11 11 11 11 11 11 11 10 10 9 9 9 8 8 8 7 7 6 6 6 6
20 19 19 20 21 20 20 21 20 20 19 20 21 19 20 19 19 17 16 15 14 13 12 11 9 9 10 11 10 10 10 9 8 8 8 8 7 7 7 6 5 5 5 5
17 16 17 15 18 19 20 20 20 19 19 19 18 18 18 19 19 17 15 15 14 13 12 11 10 9 10 10 10 9 8 8 8 7 7 7 7 6 5 5 5 4 4 4
12 12 13 18 19 19 19 18 18 17 17 17 16 15 14 14 17 15 15 13 12 12 11 11 10 10 9 9 9 8 8 7 7 7 7 6 5 5 5 5 4 4 4 3
12 12 15 18 21 19 19 18 17 16 17 16 15 15 14 13 12 12 11 10 9 9 9 9 9 9 9 8 7 7 7 7 6 6 5 5 5 4 4 4 4 4 3 3
10 12 12 16 19 20 18 15 18 16 16 16 15 11 12 10 10 9 9 9 8 7 7 8 7 8 7 7 7 7 7 6 7 5 5 4 4 4 4 3 2 2 2 2
7 9 11 15 18 19 16 15 16 15 16 15 13 11 9 9 8 8 7 6 6 6 6 6 7 7 7 7 7 6 6 5 5 5 4 4 4 4 3 3 2 1 1 0
9 7 13 16 19 17 14 15 13 13 13 11 10 9 8 8 7 6 5 5 5 5 6 7 7 7 7 6 6 5 5 5 5 4 4 4 4 3 3 2 1 0 -1 -1
12 12 14 15 16 15 14 13 14 12 13 11 9 9 8 6 5 5 5 5 5 6 6 6 6 6 6 5 5 5 5 4 4 4 4 4 3 3 2 1 0 0 -1 -1
14 15 14 13 13 13 12 11 11 12 12 11 9 8 5 5 5 5 5 5 6 6 5 5 6 6 6 6 5 5 5 5 4 4 4 3 3 2 1 1 1 -0 -0 -2
12 12 13 12 13 11 9 8 8 7 10 9 7 5 5 4 4 5 5 6 6 5 5 5 5 5 5 5 5 5 5 5 4 4 4 3 3 3 2 2 1 1 0 -0
12 13 12 11 10 10 8 7 7 6 5 5 5 5 5 5 5 5 5 6 5 5 5 5 5 4 3 3 3 2 2 2 3 3 3 3 3 3 2 2 2 1 0 -0
12 10 9 8 8 8 7 6 6 5 5 4 5 5 5 4 5 5 5 4 4 3 3 3 2 2 1 1 0 0 -0 -0 -0 0 0 -0 -0 -1 -1 -0 0 1 -0 -0
10 9 8 8 6 6 5 5 5 5 4 4 4 4 4 3 2 1 1 1 2 2 1 0 -0 -2 -2 -1 -1 -1 -2 -2 -2 -2 -2 -2 -2 -2 -2 -2 -2 -1 -1 -1
9 9 7 6 5 5 5 5 4 3 2 2 3 3 2 1 0 -1 -1 0 0 -1 -2 -2 -3 -3 -3 -3 -4 -4 -4 -4 -4 -4 -3 -3 -3 -2 -2 -2 -2 -2 -3 -2
7 7 6 5 5 4 4 4 3 2 2 1 0 0 -0 -1 -1 -2 -1 -2 -3 -4 -4 -4 -5 -5 -5 -5 -6 -6 -6 -6 -6 -5 -4 -4 -4 -4 -3 -3 -2 -3 -3 -3
6 5 4 4 4 4 4 3 2 1 -0 -1 -2 -1 -1 -2 -2 -3 -3 -3 -4 -5 -5 -6 -6 -6 -6 -7 -7 -7 -7 -7 -7 -7 -6 -6 -5 -5 -4 -3 -3 -3 -3 -3
7 6 5 5 3 2 1 0 -1 -1 -2 -3 -2 -2 -3 -3 -4 -4 -5 -5 -5 -6 -7 -7 -8 -8 -7 -8 -8 -8 -8 -8 -8 -7 -6 -6 -6 -6 -4 -4 -5 -5 -6 -6
7 5 4 4 2 1 -1 -2 -3 -3 -3 -3 -3 -5 -4 -4 -4 -5 -6 -7 -7 -7 -8 -9 -9 -9 -9 -10 -10 -10 -10 -10 -10 -9 -9 -8 -8 -8 -8 -8 -8 -8 -9 -9
5 4 2 1 0 -1 -3 -3 -3 -4 -4 -4 -4 -5 -5 -5 -5 -6 -7 -8 -9 -9 -9 -10 -10 -10 -11 -12 -11 -11 -12 -12 -12 -12 -12 -11 -11 -11 -11 -11 -11 -11 -11 -11
1 0 -1 -1 -3 -3 -3 -3 -4 -5 -5 -5 -5 -6 -6 -6 -7 -7 -8 -8 -9 -10 -10 -11 -12 -12 -13 -13 -13 -13 -14 -14 -14 -14 -14 -13 -13 -13 -13 -13 -13 -14 -13 -13
-1 -2 -2 -3 -3 -4 -4 -4 -4 -5 -6 -6 -6 -6 -7 -7 -8 -9 -9 -10 -10 -10 -11 -12 -13 -13 -13 -14 -14 -14 -15 -15 -15 -16 -16 -15 -15 -15 -15 -15 -15 -16 -15 -15
-2 -2 -3 -3 -3 -4 -4 -4 -5 -5 -6 -7 -7 -7 -8 -8 -9 -9 -10 -10 -11 -11 -12 -12 -13 -13 -14 -14 -15 -15 -16 -16 -16 -17 -17 -17 -17 -17 -17 -17 -17 -17 -17 -17
-2 -2 -3 -3 -4 -5 -5 -5 -5 -6 -7 -7 -7 -8 -8 -9 -9 -10 -10 -11 -11 -11 -12 -13 -13 -14 -14 -15 -15 -16 -16 -17 -17 -17 -18 -18 -18 -19 -19 -19 -19 -19 -18 -18
-2 -2 -3 -3 -3 -4 -4 -5 -6 -7 -7 -8 -8 -8 -9 -9 -9 -10 -11 -11 -12 -12 -13 -13 -14 -14 -15 -15 -16 -16 -17 -17 -17 -18 -19 -19 -19 -20 -20 -20 -20 -20 -20 -20
-3 -4 -4 -5 -5 -6 -6 -6 -7 -7 -8 -8 -9 -9 -9 -10 -10 -11 -11 -12 -12 -13 -13 -14 -14 -15 -15 -16 -17 -17 -17 -18 -18 -19 -19 -19 -20 -20 -20 -21 -21 -21 -21 -20
-5 -5 -6 -7 -7 -7 -7 -8 -8 -9 -9 -9 -9 -10 -10 -10 -11 -12 -12 -13 -13 -14 -14 -15 -15 -16 -16 -17 -17 -17 -18 -18 -19 -19 -20 -20 -20 -20 -21 -21 -21 -21 -21 -21

GFSNGP_925_temp_063.txt.gz
Temp
18 20 20 21 21 19 18 18 17 18 16 18 19 19 18 17 17 16 15 15 14 12 11 10 10 10 10 11 11 11 11 10 9 9 9 8 8 8 8 7 6 6 5 5
19 18 18 20 19 20 19 20 18 18 18 18 18 19 18 17 17 16 15 14 13 12 10 9 9 9 9 9 10 10 9 9 8 8 8 7 8 7 6 6 6 5 5 5
17 15 17 14 16 18 19 19 19 18 18 18 18 17 15 15 18 17 14 12 12 11 10 9 9 9 9 9 9 9 8 8 7 7 8 7 6 6 6 5 5 5 4 4
12 12 13 17 18 19 18 18 17 18 17 16 15 13 11 10 15 13 12 11 10 10 9 8 9 8 9 8 8 8 7 7 7 7 7 6 5 5 5 5 4 4 4 3
12 12 15 18 19 17 18 18 17 16 15 14 14 15 13 9 8 8 8 7 7 8 7 8 8 7 8 7 7 7 7 7 7 6 5 5 5 5 4 4 4 3 3 2
8 12 13 15 18 19 17 15 17 15 14 14 15 13 12 8 7 6 6 6 5 6 6 6 6 8 7 7 7 7 6 6 6 5 5 5 5 4 4 3 3 3 2 2
7 9 12 14 17 18 16 15 15 14 14 13 14 10 7 6 5 5 5 5 5 5 5 6 7 7 7 7 6 6 6 5 5 5 5 4 4 4 3 3 3 2 2 1
7 8 14 15 16 16 14 13 14 13 12 9 7 6 6 5 5 5 4 5 5 5 6 7 7 7 6 6 5 5 5 5 5 5 4 4 4 3 3 3 2 2 1 1
12 12 14 15 16 14 12 12 12 11 10 9 7 6 5 4 4 4 4 5 6 6 6 6 6 6 5 5 5 5 5 5 5 4 4 4 4 3 3 3 2 2 1 0
14 15 14 13 12 12 12 12 11 10 9 8 7 5 4 4 3 4 4 5 5 5 5 5 5 5 5 4 4 4 4 4 4 3 3 3 3 3 3 2 2 1 -0 -1
11 12 12 13 11 9 8 8 8 8 8 7 6 4 4 3 3 4 5 5 5 5 5 4 3 2 2 2 3 2 2 1 1 1 1 1 1 0 0 0 -0 -0 0 -0
12 12 12 12 9 8 8 7 7 6 5 5 5 4 4 4 4 5 5 5 4 3 3 1 1 0 0 -0 -0 -0 -1 -1 -2 -2 -2 -2 -2 -2 -2 -2 -1 -1 -1 -1
14 11 9 8 7 7 6 5 5 5 5 4 4 4 4 4 4 3 2 2 1 0 -0 -1 -1 -2 -2 -2 -2 -2 -3 -4 -4 -4 -4 -4 -4 -4 -3 -3 -2 -2 -2 -2
8 8 7 7 6 5 5 5 4 4 3 3 3 3 2 2 1 0 -0 -0 -0 -1 -2 -3 -3 -4 -4 -4 -4 -4 -5 -5 -6 -6 -6 -6 -5 -4 -4 -4 -4 -4 -3 -3
7 8 7 5 5 4 4 4 3 2 2 2 2 2 1 -0 -1 -2 -1 -1 -2 -3 -4 -4 -4 -6 -5 -5 -5 -6 -6 -7 -7 -7 -7 -7 -7 -6 -6 -6 -5 -5 -4 -3
6 6 6 5 4 4 3 3 2 1 1 1 -0 -1 -1 -2 -3 -3 -3 -3 -4 -5 -6 -5 -6 -7 -7 -7 -7 -7 -8 -8 -8 -8 -8 -7 -7 -7 -7 -6 -5 -5 -4 -5
5 5 4 4 3 3 3 3 2 1 -0 -1 -2 -2 -2 -3 -4 -4 -6 -5 -5 -6 -7 -7 -8 -8 -8 -9 -9 -9 -9 -9 -9 -9 -9 -9 -9 -8 -8 -8 -8 -8 -8 -9
7 6 6 4 3 2 1 0 -0 -1 -2 -3 -2 -2 -3 -3 -4 -6 -6 -6 -6 -7 -8 -9 -9 -9 -10 -10 -10 -10 -11 -11 -11 -11 -11 -11 -11 -11 -11 -11 -10 -11 -11 -10
5 5 4 3 2 1 -0 -1 -2 -3 -4 -3 -4 -5 -5 -5 -5 -6 -7 -7 -8 -8 -9 -10 -10 -10 -11 -11 -11 -12 -12 -12 -12 -12 -13 -13 -13 -13 -13 -13 -13 -13 -13 -13
4 3 1 0 -0 -1 -2 -3 -3 -4 -4 -4 -5 -5 -6 -6 -6 -7 -7 -9 -9 -9 -11 -11 -11 -11 -12 -12 -12 -13 -14 -13 -14 -14 -15 -15 -15 -15 -15 -15 -15 -15 -15 -15
1 -0 -1 -2 -3 -3 -3 -4 -4 -5 -5 -4 -5 -6 -7 -7 -7 -8 -8 -9 -10 -10 -11 -11 -12 -12 -13 -13 -14 -14 -15 -15 -15 -16 -16 -17 -16 -16 -17 -17 -17 -17 -17 -17
-0 -2 -2 -3 -3 -4 -4 -4 -5 -5 -6 -6 -6 -7 -7 -9 -8 -9 -9 -10 -10 -11 -11 -12 -13 -13 -14 -14 -15 -15 -16 -16 -17 -17 -17 -18 -18 -18 -18 -18 -18 -18 -18 -18
-2 -3 -3 -3 -4 -4 -5 -5 -5 -6 -6 -7 -7 -7 -8 -8 -9 -9 -10 -10 -11 -11 -12 -12 -13 -14 -14 -15 -15 -16 -16 -17 -17 -18 -18 -18 -19 -19 -19 -19 -19 -20 -19 -20
-3 -3 -3 -4 -5 -5 -5 -6 -6 -7 -7 -7 -7 -8 -8 -9 -10 -10 -10 -11 -11 -12 -12 -13 -13 -14 -15 -15 -16 -16 -17 -17 -18 -18 -18 -19 -19 -19 -20 -20 -20 -20 -20 -20
-3 -3 -4 -4 -4 -4 -5 -6 -7 -8 -8 -8 -9 -9 -9 -9 -9 -10 -11 -11 -12 -12 -13 -13 -14 -15 -15 -16 -16 -17 -17 -18 -18 -18 -19 -20 -20 -20 -20 -20 -20 -21 -21 -21
-3 -4 -5 -5 -5 -5 -6 -6 -7 -8 -8 -9 -9 -9 -9 -10 -10 -11 -12 -12 -13 -13 -14 -14 -15 -15 -16 -16 -17 -17 -18 -18 -18 -19 -20 -20 -20 -20 -20 -20 -21 -21 -21 -21
-6 -6 -7 -7 -8 -7 -7 -8 -8 -9 -9 -9 -10 -10 -10 -10 -11 -12 -13 -13 -14 -14 -15 -15 -16 -16 -17 -17 -17 -18 -18 -19 -19 -19 -20 -21 -21 -21 -21 -21 -21 -21 -21 -21

GFSNGP_925_temp_069.txt.gz
Temp
18 19 19 20 20 18 19 20 20 21 18 21 22 22 21 19 18 18 19 17 17 17 15 13 12 10 10 9 8 8 8 7 7 8 8 7 5 6 7 6 7 6 7 6
18 17 18 19 19 18 18 18 19 18 18 20 20 19 19 17 16 17 17 17 16 14 13 11 10 10 8 8 8 8 7 8 8 7 5 6 6 6 5 6 6 6 6 5
18 16 17 16 17 18 19 18 19 19 21 19 19 18 17 15 14 14 15 14 14 13 12 10 9 9 8 8 8 7 7 7 6 6 6 6 6 5 6 6 6 5 4 4
15 13 16 20 17 18 18 19 18 18 18 19 18 13 11 10 12 12 12 11 11 10 9 9 8 8 7 7 6 7 6 6 6 7 6 6 6 6 5 5 4 4 4 4
15 16 17 18 17 18 18 21 18 18 18 16 13 13 12 9 8 8 9 8 8 8 7 7 6 6 7 7 6 6 6 6 6 6 6 5 6 5 5 4 4 4 3 3
11 16 17 18 18 16 18 18 19 17 16 14 14 17 17 8 7 7 6 7 6 6 6 6 6 7 7 6 6 6 6 6 6 6 6 5 5 4 4 4 4 3 3 3
11 14 15 16 16 16 18 20 17 16 16 14 16 14 9 6 6 6 6 5 5 6 6 6 6 6 6 6 5 6 6 5 4 4 4 3 4 3 3 2 2 2 2 2
11 13 17 15 16 18 18 14 15 14 14 13 8 7 6 6 6 6 6 5 6 6 5 6 6 6 5 5 4 4 4 3 3 3 3 3 2 2 1 0 -0 -0 -1 -1
16 17 16 15 18 16 15 16 14 14 13 10 7 7 6 5 5 6 6 6 6 5 4 4 4 4 3 3 3 4 3 2 2 2 1 1 -0 -1 -1 -1 -2 -2 -2 -2
16 16 15 14 14 14 13 14 13 12 11 10 9 6 6 5 5 6 5 5 4 4 3 1 1 1 1 2 2 2 1 0 -0 -1 -1 -2 -2 -3 -3 -3 -3 -3 -3 -3
14 14 13 14 13 13 12 11 10 9 10 9 7 6 6 6 5 5 4 4 3 2 1 -0 -1 -1 -1 0 1 -0 -1 -2 -3 -3 -4 -4 -4 -5 -5 -5 -5 -5 -5 -5
16 16 17 19 15 12 11 11 9 8 7 7 7 6 6 5 5 4 3 2 1 0 -1 -2 -2 -3 -3 -2 -1 -2 -3 -4 -5 -5 -5 -5 -6 -5 -6 -6 -6 -6 -6 -6
17 13 11 8 8 9 10 9 8 8 7 6 5 5 5 5 4 3 2 2 1 -1 -2 -3 -4 -4 -5 -3 -3 -5 -5 -6 -6 -6 -6 -7 -6 -6 -6 -6 -7 -7 -8 -8
10 10 10 9 10 7 7 6 5 5 5 5 4 4 4 3 2 2 1 -1 -2 -3 -4 -4 -5 -6 -6 -6 -6 -7 -7 -7 -7 -7 -7 -7 -7 -7 -7 -7 -8 -8 -9 -9
8 7 9 6 5 4 5 5 4 3 3 3 3 3 2 2 1 -1 -2 -3 -4 -4 -5 -5 -6 -7 -7 -7 -7 -7 -7 -8 -9 -9 -9 -9 -8 -9 -8 -9 -9 -9 -10 -10
6 6 6 6 5 4 4 4 3 3 3 2 2 1 0 -1 -2 -3 -4 -4 -3 -5 -6 -7 -7 -8 -8 -8 -8 -8 -9 -9 -10 -9 -10 -10 -10 -10 -10 -11 -10 -11 -11 -12
6 5 4 4 4 4 5 4 3 2 1 0 -1 -2 -2 -3 -4 -4 -5 -6 -6 -7 -8 -8 -8 -8 -9 -9 -9 -10 -10 -11 -11 -11 -11 -11 -12 -12 -12 -13 -13 -13 -13 -14
7 6 7 6 4 3 2 1 1 0 -0 -2 -4 -4 -4 -4 -4 -6 -7 -8 -8 -9 -9 -10 -9 -10 -10 -11 -11 -11 -11 -12 -13 -13 -13 -13 -14 -14 -14 -15 -15 -15 -15 -15
5 4 4 3 2 1 0 -1 -2 -3 -4 -4 -4 -5 -5 -6 -6 -7 -7 -8 -9 -8 -10 -10 -10 -11 -12 -12 -12 -12 -13 -13 -14 -14 -15 -15 -16 -16 -16 -16 -16 -16 -17 -17
3 2 1 -0 -1 -2 -3 -3 -4 -4 -5 -5 -5 -6 -6 -7 -7 -8 -8 -8 -8 -9 -11 -11 -11 -12 -13 -13 -13 -14 -14 -15 -16 -16 -17 -17 -17 -17 -17 -18 -18 -18 -18 -18
-0 -1 -2 -3 -4 -4 -4 -5 -5 -5 -6 -5 -6 -6 -7 -8 -7 -8 -8 -8 -10 -11 -11 -11 -12 -13 -13 -14 -14 -15 -15 -16 -17 -17 -18 -18 -19 -19 -19 -19 -19 -19 -19 -19
-2 -3 -4 -4 -4 -5 -5 -6 -6 -7 -7 -7 -7 -7 -8 -9 -9 -9 -9 -9 -10 -11 -11 -12 -12 -13 -13 -14 -15 -15 -16 -16 -17 -17 -18 -19 -19 -20 -20 -20 -21 -21 -21 -21
-3 -4 -4 -5 -6 -6 -7 -7 -7 -7 -7 -7 -7 -8 -8 -8 -9 -9 -9 -11 -11 -11 -12 -12 -13 -13 -14 -14 -15 -16 -16 -17 -17 -18 -18 -19 -20 -21 -21 -21 -21 -22 -22 -22
-4 -5 -6 -6 -6 -5 -5 -6 -7 -7 -7 -8 -8 -8 -9 -9 -10 -10 -10 -11 -11 -12 -12 -13 -13 -14 -14 -15 -16 -16 -16 -17 -18 -18 -19 -19 -19 -20 -21 -21 -21 -22 -22 -22
-5 -5 -5 -5 -6 -6 -7 -7 -7 -8 -8 -9 -9 -9 -9 -9 -9 -10 -11 -11 -12 -12 -13 -13 -14 -15 -15 -16 -16 -17 -17 -17 -18 -19 -19 -19 -20 -20 -21 -22 -22 -22 -22 -22
-5 -5 -6 -6 -6 -6 -7 -7 -8 -9 -9 -9 -10 -10 -10 -10 -10 -11 -11 -12 -13 -13 -14 -14 -15 -15 -16 -17 -17 -17 -18 -18 -18 -19 -20 -20 -20 -21 -22 -22 -22 -22 -22 -22
-7 -7 -8 -8 -9 -9 -9 -9 -9 -10 -10 -10 -10 -11 -11 -11 -11 -12 -13 -13 -14 -14 -15 -15 -16 -16 -17 -17 -18 -18 -19 -19 -20 -20 -20 -21 -21 -22 -22 -23 -23 -23 -22 -22

GFSNGP_925_temp_072.txt.gz
Temp
25 25 25 25 25 25 24 24 24 25 25 26 27 27 28 27 25 24 25 25 24 24 23 21 19 17 16 13 11 10 10 8 8 6 7 8 7 7 7 6 7 6 7 8
23 24 24 24 24 25 24 25 25 25 25 27 27 26 26 25 24 24 23 23 23 22 21 19 17 15 13 11 11 10 10 8 7 6 7 6 5 5 6 6 5 7 7 7
21 22 22 19 22 24 24 24 24 24 26 27 26 25 25 24 21 21 20 20 20 20 19 17 15 13 11 10 10 9 8 6 5 6 6 5 5 6 6 6 7 7 6 6
20 16 18 23 23 25 25 25 25 25 25 26 25 24 21 18 19 18 17 17 17 17 15 15 14 13 12 11 10 8 8 6 6 5 6 6 6 6 6 7 6 6 6 6
17 20 23 22 20 22 23 24 26 25 26 26 23 20 20 16 15 15 15 15 15 14 14 13 12 12 11 9 8 8 7 6 5 6 6 6 6 6 7 6 6 6 6 5
16 19 18 23 24 24 23 22 26 25 24 23 19 20 24 15 14 13 13 13 12 12 11 11 11 11 9 8 8 7 6 6 7 7 6 6 7 6 6 5 5 5 5 4
19 18 22 22 20 22 21 23 24 24 24 21 20 21 17 14 13 12 12 11 11 11 11 11 11 10 10 8 7 6 6 5 5 6 6 6 5 5 5 5 4 3 1 1
18 16 18 19 19 22 25 21 23 21 22 20 18 13 13 13 12 12 11 11 11 11 10 10 9 9 9 8 6 6 6 6 5 4 4 4 4 4 4 3 3 1 -1 -0
20 22 23 21 24 23 22 24 21 22 21 19 14 13 12 12 12 12 11 11 10 10 9 9 8 7 7 7 6 6 5 4 3 3 2 2 3 3 2 2 1 0 -0 -0
19 23 22 21 22 18 20 20 20 19 19 16 15 13 12 12 12 12 11 10 9 8 8 7 7 6 6 5 4 4 3 2 2 1 2 1 2 1 1 -0 -1 -1 -1 -2
21 22 19 19 19 20 19 18 17 16 18 17 15 13 12 12 11 11 9 9 8 7 6 5 4 3 3 3 3 2 2 1 1 0 -0 -0 -1 -2 -2 -3 -4 -4 -3 -4
19 23 21 24 21 19 19 18 17 16 15 16 14 13 12 11 10 9 8 8 7 6 5 3 2 1 1 1 1 1 1 0 -2 -1 -2 -2 -2 -2 -4 -5 -6 -7 -7 -7
21 16 18 15 13 13 16 18 17 16 15 13 13 12 11 10 9 8 7 6 5 4 2 1 0 -1 -1 -1 -1 -0 -1 -2 -3 -3 -3 -3 -3 -3 -2 -4 -6 -7 -8 -9
14 14 17 15 16 12 13 13 12 13 12 12 10 10 9 8 6 7 6 5 3 1 -0 -1 -1 -2 -2 -2 -3 -4 -4 -5 -3 -4 -4 -4 -4 -4 -4 -5 -5 -5 -7 -8
14 14 14 11 10 10 11 10 10 10 9 9 9 8 7 7 7 5 2 1 -0 -1 -2 -2 -2 -3 -4 -4 -4 -4 -4 -5 -5 -6 -6 -6 -6 -6 -6 -6 -6 -6 -7 -7
13 12 10 11 11 10 10 10 9 8 8 7 7 6 6 4 2 0 -1 -2 -3 -4 -4 -5 -5 -5 -5 -5 -5 -5 -6 -8 -7 -7 -7 -7 -7 -7 -7 -8 -8 -8 -8 -9
11 10 9 10 9 9 9 9 8 7 6 5 5 3 0 -2 -3 -5 -6 -6 -7 -7 -7 -7 -6 -7 -7 -6 -6 -6 -6 -7 -9 -8 -8 -8 -9 -9 -8 -9 -9 -9 -10 -11
11 10 10 9 8 8 7 4 3 2 1 -1 -3 -3 -3 -3 -4 -6 -7 -8 -8 -8 -8 -8 -8 -9 -9 -8 -8 -9 -9 -9 -9 -10 -10 -10 -11 -10 -10 -11 -11 -11 -11 -12
9 8 8 7 6 5 3 2 0 -2 -3 -3 -3 -3 -4 -5 -5 -6 -7 -8 -8 -8 -9 -9 -10 -10 -10 -11 -10 -11 -11 -11 -11 -11 -12 -13 -12 -12 -12 -12 -13 -13 -13 -13
5 4 2 1 1 0 -1 -2 -3 -3 -4 -4 -4 -5 -5 -6 -6 -7 -6 -7 -7 -8 -9 -10 -10 -11 -11 -13 -12 -12 -12 -12 -12 -13 -13 -14 -13 -14 -14 -14 -15 -14 -14 -14
-1 -1 -1 -2 -3 -3 -3 -3 -3 -3 -4 -5 -4 -5 -6 -7 -7 -8 -7 -7 -10 -10 -10 -11 -11 -11 -12 -12 -12 -13 -13 -13 -13 -14 -14 -14 -14 -14 -14 -15 -15 -15 -16 -16
-2 -3 -3 -3 -3 -4 -4 -5 -5 -6 -6 -7 -7 -7 -7 -8 -8 -9 -8 -8 -10 -10 -10 -11 -11 -12 -13 -13 -13 -13 -13 -14 -14 -14 -14 -15 -15 -15 -15 -16 -16 -17 -17 -17
-3 -4 -4 -4 -5 -5 -6 -6 -6 -6 -7 -7 -7 -7 -6 -6 -6 -6 -7 -9 -10 -11 -10 -11 -12 -13 -13 -14 -14 -14 -14 -15 -15 -15 -15 -15 -16 -16 -17 -17 -18 -18 -18 -18
-3 -4 -4 -4 -4 -4 -4 -6 -6 -7 -8 -8 -8 -8 -7 -7 -8 -9 -10 -10 -11 -11 -11 -12 -13 -14 -14 -14 -14 -15 -15 -15 -15 -15 -16 -17 -17 -17 -17 -18 -19 -19 -19 -20
-3 -3 -4 -4 -4 -5 -5 -5 -6 -7 -7 -7 -8 -8 -8 -9 -8 -9 -10 -11 -12 -11 -12 -14 -14 -14 -14 -15 -15 -15 -16 -16 -16 -17 -17 -17 -17 -18 -18 -19 -19 -20 -21 -21
-4 -4 -4 -5 -5 -5 -5 -5 -6 -6 -7 -7 -8 -9 -9 -10 -10 -10 -11 -12 -13 -13 -13 -14 -15 -15 -15 -15 -16 -16 -17 -17 -17 -17 -18 -18 -18 -19 -19 -20 -21 -21 -21 -22
-6 -6 -6 -6 -7 -7 -7 -7 -7 -8 -8 -8 -8 -10 -10 -10 -11 -12 -12 -13 -13 -14 -14 -15 -15 -16 -17 -17 -17 -17 -17 -18 -18 -19 -20 -20 -20 -20 -21 -22 -22 -23 -23 -23

GFSNGP_925_temp_075.txt.gz
Temp
26 27 27 27 26 26 26 26 25 25 26 28 29 29 29 29 29 29 29 28 28 28 27 25 24 22 22 20 18 16 13 11 9 8 8 8 8 8 8 7 7 6 7 7
24 26 26 26 27 27 27 27 27 27 26 29 29 29 28 28 28 28 27 27 27 27 27 25 22 21 19 16 14 13 10 8 7 7 6 6 6 6 6 6 7 7 7 9
22 25 25 23 25 26 27 27 26 25 27 28 28 28 28 28 28 26 25 24 24 25 24 22 20 16 13 12 11 10 9 7 7 6 5 6 6 6 6 7 7 8 8 8
21 18 20 24 26 27 26 27 27 27 27 28 28 28 28 26 25 25 23 22 22 22 21 19 16 13 11 11 9 8 7 7 6 6 6 6 7 8 8 8 8 8 8 7
19 21 23 25 24 25 25 25 27 27 27 28 28 26 25 23 22 22 21 20 20 19 18 17 14 12 11 9 9 8 8 9 8 8 7 7 7 8 7 8 8 8 7 7
19 19 19 23 25 26 27 24 27 27 27 27 26 23 25 21 19 19 19 18 17 17 16 15 14 13 12 11 11 11 10 9 8 7 8 8 7 8 8 7 7 7 7 6
19 19 22 26 26 27 22 23 27 27 27 26 25 24 21 19 18 18 17 17 16 16 15 15 13 12 11 11 11 10 9 9 9 8 7 8 8 7 7 7 6 5 3 2
19 17 18 23 22 23 25 27 26 26 26 25 24 19 18 18 17 17 17 15 15 15 15 14 13 13 12 11 10 9 8 8 8 8 7 7 7 6 6 6 5 3 0 1
21 22 24 23 25 24 26 26 26 25 26 24 20 18 18 17 16 16 16 16 15 14 13 12 12 12 12 10 8 8 8 7 7 6 6 6 6 5 5 4 3 2 1 1
22 23 24 24 24 24 25 24 25 24 24 23 20 19 17 17 17 16 16 15 14 13 12 11 10 10 10 9 8 8 7 6 5 5 5 4 4 3 3 2 1 1 1 -0
22 23 24 23 23 23 24 22 23 22 23 22 20 18 18 17 16 16 15 14 13 12 11 10 10 9 8 7 7 6 5 5 4 3 3 2 2 0 0 -3 -3 -2 -2 -3
20 23 23 24 23 24 23 23 22 22 21 21 20 18 17 17 16 15 13 12 11 10 9 8 7 6 6 6 5 4 4 3 2 2 1 1 1 -1 -2 -3 -4 -5 -6 -6
23 23 22 20 19 19 21 22 22 21 21 20 19 18 17 16 14 12 12 11 9 8 7 6 4 3 2 2 3 3 2 -0 -1 -0 0 0 -0 -0 0 -5 -4 -5 -6 -7
23 20 19 20 21 16 17 17 16 19 19 19 18 16 15 14 11 11 10 9 8 6 4 2 1 -0 -0 -1 -1 -2 -2 -2 -1 -1 -1 -1 -1 -2 -2 -2 -3 -3 -6 -6
20 19 19 17 16 16 15 15 15 15 15 15 14 14 13 11 11 9 8 5 4 2 1 -0 -2 -3 -3 -2 -2 -2 -3 -3 -3 -4 -4 -5 -4 -4 -4 -4 -5 -5 -5 -5
20 17 16 16 15 14 14 14 13 12 13 13 12 11 10 9 6 4 2 1 0 -3 -5 -6 -6 -6 -4 -3 -3 -4 -5 -6 -5 -5 -5 -5 -5 -5 -5 -5 -6 -6 -6 -6
16 15 14 15 14 13 14 13 12 11 11 9 9 7 4 1 -2 -4 -6 -6 -6 -6 -6 -7 -6 -6 -5 -4 -4 -4 -4 -6 -7 -6 -6 -6 -7 -6 -6 -6 -7 -7 -7 -8
14 15 14 14 13 12 11 10 9 7 5 -0 -2 -3 -4 -4 -5 -6 -7 -7 -7 -7 -7 -7 -7 -7 -7 -7 -7 -8 -8 -7 -8 -8 -8 -8 -8 -9 -8 -8 -8 -8 -9 -9
12 12 11 10 8 5 3 2 -0 -2 -2 -2 -3 -4 -5 -5 -5 -6 -6 -7 -7 -7 -8 -9 -9 -9 -10 -10 -9 -9 -9 -9 -9 -8 -9 -10 -9 -9 -10 -10 -10 -10 -11 -11
6 5 3 2 2 1 -0 -1 -2 -3 -3 -4 -4 -5 -5 -6 -6 -6 -6 -7 -7 -8 -8 -9 -9 -10 -10 -11 -10 -10 -10 -10 -10 -10 -10 -12 -11 -11 -11 -11 -11 -12 -12 -12
-0 -1 -1 -2 -2 -2 -2 -3 -2 -3 -4 -4 -4 -5 -5 -6 -7 -7 -7 -7 -9 -9 -10 -10 -9 -9 -10 -10 -10 -10 -10 -10 -11 -11 -11 -11 -11 -11 -11 -12 -12 -13 -13 -14
-2 -2 -2 -3 -3 -3 -4 -4 -4 -5 -5 -6 -6 -6 -6 -7 -7 -7 -7 -8 -9 -9 -9 -9 -10 -11 -11 -11 -10 -11 -11 -11 -12 -12 -12 -12 -12 -13 -13 -13 -14 -14 -15 -15
-3 -3 -3 -3 -3 -4 -4 -5 -5 -5 -5 -5 -6 -5 -5 -5 -5 -5 -6 -8 -9 -9 -8 -10 -12 -13 -13 -12 -12 -12 -12 -12 -12 -13 -13 -13 -13 -14 -14 -14 -15 -15 -16 -16
-2 -2 -3 -3 -4 -4 -4 -6 -6 -6 -7 -6 -7 -6 -5 -6 -7 -8 -8 -9 -10 -10 -10 -12 -12 -13 -13 -12 -12 -13 -13 -13 -13 -13 -14 -15 -14 -15 -15 -15 -16 -16 -17 -17
-2 -2 -2 -2 -3 -3 -4 -4 -5 -5 -6 -6 -7 -7 -7 -7 -7 -8 -9 -10 -11 -10 -11 -13 -13 -14 -13 -13 -13 -14 -14 -14 -14 -15 -15 -15 -15 -16 -16 -16 -17 -17 -18 -19
-3 -3 -3 -3 -3 -3 -4 -4 -4 -5 -5 -6 -7 -7 -8 -9 -9 -9 -10 -11 -11 -12 -12 -12 -13 -14 -14 -14 -14 -14 -15 -15 -15 -16 -16 -17 -17 -17 -17 -17 -18 -18 -19 -19
-4 -4 -4 -5 -6 -6 -6 -6 -6 -7 -7 -7 -8 -9 -9 -9 -10 -10 -11 -11 -12 -12 -12 -13 -13 -14 -15 -16 -16 -16 -16 -16 -17 -17 -18 -18 -18 -18 -19 -19 -19 -20 -21 -21

GFSNGP_925_temp_081.txt.gz
Temp
21 23 23 24 24 23 23 22 22 22 22 23 23 24 25 23 25 24 24 24 23 21 20 21 22 20 21 20 20 20 18 15 13 14 13 13 12 13 12 12 11 10 9 9
19 21 23 23 23 23 24 24 23 23 22 23 24 24 25 25 23 23 23 23 23 22 22 20 18 15 14 15 15 15 11 11 11 11 11 11 10 10 9 9 9 9 9 8
17 20 20 18 22 23 23 24 23 21 22 24 25 26 26 26 24 24 24 22 22 20 18 16 14 12 11 10 11 10 10 9 9 9 9 8 8 8 8 8 8 8 7 7
15 16 17 21 23 24 23 24 25 24 24 24 25 25 23 22 22 22 21 20 19 15 13 12 11 10 10 10 9 9 9 9 9 9 8 7 7 7 6 7 7 7 7 7
13 16 18 20 23 23 23 22 25 24 24 24 24 25 19 21 20 21 19 18 15 14 12 11 10 10 10 9 8 8 8 7 7 7 6 6 6 6 7 7 7 7 7 7
12 14 15 19 21 25 24 19 23 24 23 22 23 19 19 19 17 16 16 16 13 12 11 11 10 10 9 8 8 7 7 6 6 6 6 6 7 7 7 8 8 7 6 6
12 12 14 21 22 23 19 17 22 24 24 25 20 18 18 16 16 16 16 15 13 12 11 10 10 10 8 8 8 7 7 7 6 7 7 7 7 7 8 7 7 5 4 3
11 12 13 20 22 21 19 20 22 23 23 21 17 16 15 16 15 15 15 15 14 12 10 10 10 10 9 9 8 8 8 8 8 8 7 7 7 7 7 6 5 4 4 2
15 14 17 19 19 17 18 19 22 23 22 17 15 16 15 15 14 14 13 14 15 12 11 11 11 10 10 9 9 9 8 8 8 8 8 7 7 6 5 5 4 3 2 1
16 18 19 18 18 19 18 17 20 21 20 18 17 15 15 14 13 13 13 14 13 12 11 11 12 11 10 9 9 8 7 7 7 6 5 5 4 4 3 3 2 1 1 0
17 19 19 19 19 21 19 19 19 22 22 20 16 15 14 14 13 13 13 12 12 10 9 8 9 9 9 9 8 6 5 5 4 3 3 2 2 1 2 1 1 0 -1 -1
14 18 18 19 19 19 19 19 19 18 20 20 16 15 14 13 12 12 11 10 9 8 6 1 2 3 5 5 4 3 2 2 2 1 1 1 0 -1 -1 -1 -2 -2 -2 -3
18 20 18 16 15 16 16 16 16 18 20 19 16 14 13 12 11 10 9 8 4 2 0 0 -0 -0 1 2 2 1 -0 -0 -0 -0 -1 -1 -2 -2 -3 -4 -4 -4 -5 -5
18 18 17 17 15 15 15 15 15 14 14 14 13 13 12 11 10 8 4 2 0 -1 -2 -2 -3 -3 -2 -1 -1 -2 -2 -2 -3 -3 -4 -4 -4 -4 -5 -4 -4 -4 -5 -5
18 15 15 14 14 14 14 13 12 12 11 11 11 10 6 5 3 1 -0 -2 -2 -3 -4 -5 -5 -5 -3 -3 -3 -3 -4 -5 -5 -5 -6 -6 -6 -6 -5 -5 -5 -5 -5 -6
17 14 14 13 13 13 12 11 10 9 5 3 1 0 -1 -1 -3 -4 -4 -4 -4 -5 -6 -5 -6 -5 -5 -5 -5 -6 -6 -6 -6 -6 -6 -6 -7 -7 -6 -6 -6 -6 -7 -7
13 13 12 12 9 7 5 4 3 2 0 -1 -2 -3 -3 -4 -5 -6 -6 -6 -6 -7 -7 -7 -7 -7 -7 -6 -7 -7 -7 -7 -7 -7 -8 -7 -7 -8 -8 -8 -8 -8 -9 -10
7 8 9 7 5 2 0 -1 -1 -2 -3 -4 -4 -5 -5 -5 -6 -7 -7 -8 -8 -8 -8 -8 -8 -8 -8 -8 -8 -8 -8 -8 -8 -8 -8 -9 -9 -9 -9 -10 -10 -10 -11 -11
4 3 2 2 0 -0 -1 -2 -3 -4 -4 -4 -5 -5 -6 -6 -6 -7 -7 -8 -8 -8 -9 -9 -9 -9 -8 -9 -9 -9 -9 -9 -9 -9 -10 -10 -10 -11 -11 -11 -11 -11 -12 -12
0 -0 -1 -2 -2 -2 -3 -4 -4 -5 -5 -5 -6 -6 -7 -7 -7 -8 -8 -8 -9 -9 -9 -9 -9 -10 -9 -9 -9 -10 -10 -10 -10 -11 -11 -11 -11 -11 -12 -12 -13 -13 -13 -14
-2 -2 -2 -3 -3 -4 -4 -4 -4 -5 -6 -6 -6 -6 -7 -8 -8 -8 -8 -9 -9 -9 -9 -9 -10 -10 -10 -10 -10 -11 -11 -11 -11 -12 -12 -12 -12 -13 -13 -13 -14 -14 -14 -15
-3 -3 -4 -4 -4 -5 -5 -5 -5 -6 -6 -6 -7 -7 -7 -8 -8 -8 -9 -9 -9 -9 -10 -11 -11 -11 -11 -11 -12 -12 -12 -12 -13 -13 -13 -14 -14 -14 -14 -14 -15 -15 -15 -16
-4 -4 -4 -5 -5 -5 -6 -6 -6 -6 -6 -7 -7 -7 -7 -7 -8 -8 -9 -10 -10 -10 -11 -12 -12 -12 -12 -12 -13 -13 -13 -14 -14 -14 -15 -15 -15 -16 -16 -16 -16 -16 -16 -17
-4 -4 -5 -5 -5 -5 -5 -6 -6 -7 -7 -8 -7 -8 -8 -9 -10 -10 -10 -11 -11 -11 -12 -13 -13 -13 -13 -14 -14 -15 -15 -15 -16 -16 -16 -16 -17 -17 -17 -18 -18 -18 -18 -19
-4 -4 -5 -5 -5 -5 -6 -6 -7 -7 -8 -8 -9 -9 -9 -9 -10 -11 -11 -12 -12 -12 -13 -14 -14 -14 -15 -15 -15 -16 -16 -16 -17 -17 -18 -18 -18 -18 -19 -19 -19 -20 -20 -21
-5 -5 -5 -5 -6 -6 -6 -7 -7 -8 -8 -9 -10 -10 -10 -10 -11 -12 -12 -13 -13 -13 -14 -15 -15 -15 -16 -16 -17 -17 -17 -18 -18 -19 -19 -19 -19 -20 -20 -21 -21 -21 -22 -22
-6 -7 -7 -8 -8 -9 -9 -10 -9 -9 -10 -11 -12 -11 -12 -12 -12 -13 -13 -14 -14 -15 -15 -16 -16 -17 -17 -18 -18 -18 -18 -19 -19 -20 -20 -20 -21 -21 -22 -22 -22 -23 -23 -23

GFSNGP_925_temp_084.txt.gz
Temp
19 20 21 21 21 22 22 21 20 21 20 21 22 22 22 22 21 22 22 21 20 19 18 18 19 19 19 19 18 17 17 17 17 15 14 14 13 14 14 12 12 13 10 9
17 19 21 20 21 22 22 22 21 21 21 22 24 21 22 22 21 21 22 23 21 20 18 18 18 18 18 17 17 17 16 16 15 13 12 12 12 10 11 10 9 9 8 8
15 19 20 17 18 20 21 21 22 20 21 22 22 21 21 21 21 21 21 21 20 20 17 16 15 15 13 12 13 14 13 11 11 10 10 11 11 11 9 9 8 8 8 8
12 15 16 17 20 21 22 22 21 23 23 23 23 23 23 21 20 20 19 18 16 13 11 11 11 11 10 10 10 10 9 10 11 11 10 9 9 8 8 7 7 7 7 7
13 13 17 19 20 21 21 21 22 22 23 23 23 20 21 20 20 18 17 16 13 12 11 10 9 9 9 9 10 10 9 9 9 9 9 8 7 7 7 7 7 7 7 6
11 12 13 17 19 21 22 19 22 22 22 23 20 17 18 19 17 15 14 13 11 10 10 9 9 10 9 8 8 8 8 8 8 8 8 7 6 6 6 7 6 6 6 6
11 12 12 16 18 21 19 17 21 22 24 22 20 17 18 16 16 14 13 11 11 10 9 9 9 9 8 8 7 8 8 7 7 7 7 7 6 6 6 6 6 5 5 3
10 10 12 17 18 19 17 19 20 22 22 21 19 15 15 15 14 13 11 10 10 9 9 9 10 10 8 7 7 7 7 7 6 6 6 6 6 6 6 5 4 2 1 0
12 12 15 17 17 17 17 18 19 18 20 18 15 15 14 14 13 12 11 11 10 9 9 9 10 9 8 7 7 7 7 7 6 7 6 6 6 5 3 2 2 0 -0 -1
14 17 16 17 17 18 18 18 19 20 19 16 16 14 14 13 12 11 11 10 10 9 8 8 9 9 8 8 7 7 5 4 4 4 3 3 3 3 2 2 1 0 -2 -3
14 16 18 18 17 18 19 19 19 19 19 16 15 14 13 12 11 10 9 9 8 5 2 2 5 6 6 5 6 4 2 2 1 1 1 0 -0 -1 -0 -1 -1 -1 -2 -2
13 16 17 19 18 17 17 19 18 18 19 18 15 13 12 11 10 9 8 4 2 1 1 0 0 1 2 3 4 2 -0 -1 -1 -1 -2 -2 -3 -3 -2 -2 -2 -3 -3 -3
16 18 17 16 16 15 16 16 14 16 17 17 13 12 11 9 8 3 3 2 1 -0 -1 -2 -2 -2 -1 1 1 -1 -3 -3 -3 -2 -2 -2 -3 -3 -4 -4 -4 -4 -5 -5
16 16 16 15 14 14 13 13 11 11 11 11 10 9 7 4 2 1 0 -1 -2 -3 -4 -4 -4 -4 -3 -2 -1 -2 -2 -2 -3 -4 -4 -4 -4 -5 -5 -5 -5 -5 -6 -6
16 15 14 12 13 12 11 10 7 5 5 5 5 3 2 0 -1 -2 -3 -3 -4 -4 -4 -4 -4 -4 -3 -2 -2 -4 -4 -5 -5 -5 -6 -6 -6 -6 -6 -6 -6 -6 -7 -6
13 13 12 12 11 10 8 6 4 2 1 -0 -1 -2 -2 -3 -4 -4 -4 -4 -4 -6 -6 -6 -6 -6 -5 -5 -5 -6 -6 -6 -7 -7 -7 -7 -7 -7 -8 -8 -8 -8 -8 -9
11 11 9 7 5 4 3 2 1 -0 -1 -2 -3 -4 -4 -5 -6 -7 -7 -7 -7 -7 -7 -7 -7 -7 -7 -7 -7 -7 -8 -8 -7 -8 -8 -9 -9 -9 -9 -9 -9 -10 -10 -11
6 6 6 4 2 0 -1 -1 -2 -3 -3 -4 -5 -5 -6 -6 -7 -7 -8 -8 -9 -9 -9 -9 -9 -8 -8 -8 -8 -8 -8 -9 -9 -9 -9 -10 -10 -10 -11 -11 -11 -11 -12 -12
2 2 1 0 -1 -1 -2 -3 -3 -4 -4 -5 -5 -6 -6 -7 -7 -8 -8 -9 -9 -9 -10 -9 -9 -9 -9 -9 -9 -10 -10 -10 -10 -11 -11 -11 -11 -12 -12 -12 -13 -13 -13 -14
-0 -1 -2 -2 -3 -3 -3 -4 -5 -5 -5 -6 -6 -7 -8 -8 -8 -9 -9 -9 -9 -10 -10 -10 -10 -10 -10 -10 -10 -11 -11 -12 -12 -12 -12 -13 -13 -13 -14 -14 -14 -14 -14 -15
-2 -2 -3 -3 -4 -4 -5 -5 -5 -6 -6 -6 -7 -8 -8 -8 -8 -9 -9 -10 -11 -11 -11 -11 -11 -11 -11 -12 -12 -12 -12 -13 -13 -14 -14 -15 -15 -15 -15 -15 -16 -16 -16 -16
-3 -4 -4 -4 -5 -5 -5 -6 -6 -6 -7 -7 -8 -8 -9 -9 -9 -9 -10 -11 -12 -11 -12 -12 -12 -12 -12 -13 -13 -14 -14 -14 -15 -15 -15 -16 -16 -17 -17 -17 -17 -17 -17 -18
-4 -4 -5 -5 -5 -6 -6 -6 -7 -7 -7 -7 -7 -8 -8 -8 -9 -10 -11 -12 -12 -12 -13 -13 -13 -13 -14 -14 -15 -15 -15 -16 -16 -17 -17 -18 -18 -18 -18 -19 -19 -19 -19 -20
-5 -5 -5 -5 -6 -6 -6 -7 -7 -8 -8 -9 -9 -10 -10 -11 -12 -11 -12 -12 -13 -13 -14 -14 -14 -15 -15 -15 -16 -16 -17 -17 -18 -18 -18 -19 -19 -19 -20 -20 -20 -21 -21 -21
-5 -5 -5 -6 -6 -6 -7 -8 -8 -8 -9 -10 -10 -11 -11 -12 -12 -12 -13 -13 -14 -14 -15 -15 -16 -16 -16 -17 -17 -18 -18 -19 -19 -19 -20 -20 -20 -20 -21 -21 -22 -22 -22 -23
-5 -6 -6 -6 -7 -7 -8 -8 -9 -10 -10 -11 -12 -12 -12 -12 -13 -13 -14 -14 -15 -15 -16 -16 -17 -17 -18 -18 -18 -19 -19 -19 -20 -20 -20 -21 -21 -22 -22 -22 -23 -23 -24 -24
-7 -8 -8 -9 -9 -9 -9 -10 -11 -12 -12 -12 -13 -13 -13 -14 -14 -14 -15 -15 -16 -16 -17 -17 -18 -18 -19 -19 -19 -19 -20 -20 -20 -21 -21 -21 -22 -22 -23 -23 -24 -24 -24 -25